Time,TemperatureF,DewpointF,PressureIn,WindDirection,WindDirectionDegrees,WindSpeedMPH,WindSpeedGustMPH,Humidity,HourlyPrecipIn,Conditions,Clouds,dailyrainin,SoftwareType,DateUTC
2013-01-31 00:00:00,31.1,24.8,29.75,West,279,15.0,15.0,77,0.00,,---,1.40,VWS V14.01,2013-01-31 05:00:00,
2013-01-31 00:01:00,31.0,24.6,29.75,WNW,292,8.0,13.0,77,0.00,,---,0.00,VWS V14.01,2013-01-31 05:01:00,
2013-01-31 00:02:00,31.0,24.6,29.75,WSW,245,7.0,8.0,77,0.00,,---,0.00,VWS V14.01,2013-01-31 05:02:00,
2013-01-31 00:03:00,31.0,24.6,29.75,WSW,243,9.0,15.0,77,0.00,,---,0.00,VWS V14.01,2013-01-31 05:03:00,
2013-01-31 00:04:00,31.0,24.6,29.75,West,273,5.0,12.0,77,0.00,,---,0.00,VWS V14.01,2013-01-31 05:04:00,
2013-01-31 00:05:00,31.0,24.6,29.75,WNW,294,5.0,12.0,77,0.00,,---,0.00,VWS V14.01,2013-01-31 05:05:00,
2013-01-31 00:06:00,31.0,24.6,29.75,NW,316,13.0,21.0,77,0.00,,---,0.00,VWS V14.01,2013-01-31 05:06:00,
2013-01-31 00:07:00,31.0,24.6,29.76,South,176,6.0,18.0,77,0.00,,---,0.00,VWS V14.01,2013-01-31 05:07:00,
2013-01-31 00:08:00,31.0,24.6,29.76,WNW,303,9.0,14.0,77,0.00,,---,0.00,VWS V14.01,2013-01-31 05:08:00,
2013-01-31 00:09:00,30.9,24.2,29.75,WNW,292,5.0,18.0,76,0.00,,---,0.00,VWS V14.01,2013-01-31 05:09:00,
2013-01-31 00:10:00,31.0,24.6,29.76,WNW,285,10.0,10.0,77,0.00,,---,0.00,VWS V14.01,2013-01-31 05:10:00,
2013-01-31 00:11:00,30.9,24.5,29.76,WSW,240,11.0,18.0,77,0.00,,---,0.00,VWS V14.01,2013-01-31 05:11:00,
2013-01-31 00:12:00,30.9,24.2,29.76,WSW,246,7.0,19.0,76,0.00,,---,0.00,VWS V14.01,2013-01-31 05:12:00,
2013-01-31 00:13:00,30.9,24.2,29.76,West,271,9.0,17.0,76,0.00,,---,0.00,VWS V14.01,2013-01-31 05:13:00,
2013-01-31 00:14:00,31.0,24.3,29.76,West,268,9.0,11.0,76,0.00,,---,0.00,VWS V14.01,2013-01-31 05:14:00,
2013-01-31 00:15:00,30.9,24.5,29.76,West,263,4.0,11.0,77,0.00,,---,0.00,VWS V14.01,2013-01-31 05:15:00,
2013-01-31 00:16:00,30.9,24.5,29.76,SW,223,9.0,11.0,77,0.00,,---,0.00,VWS V14.01,2013-01-31 05:16:00,
2013-01-31 00:17:00,31.0,24.6,29.76,WSW,252,7.0,11.0,77,0.00,,---,0.00,VWS V14.01,2013-01-31 05:17:00,
2013-01-31 00:18:00,31.0,24.6,29.76,SW,228,4.0,9.0,77,0.00,,---,0.00,VWS V14.01,2013-01-31 05:18:00,
2013-01-31 00:19:00,31.0,24.6,29.76,West,278,4.0,9.0,77,0.00,,---,0.00,VWS V14.01,2013-01-31 05:19:00,
2013-01-31 00:20:00,31.0,24.6,29.76,West,273,5.0,11.0,77,0.00,,---,0.00,VWS V14.01,2013-01-31 05:20:00,
2013-01-31 00:21:00,30.9,24.5,29.76,WNW,299,6.0,10.0,77,0.00,,---,0.00,VWS V14.01,2013-01-31 05:21:00,
2013-01-31 00:22:00,30.9,24.5,29.77,WNW,288,11.0,17.0,77,0.00,,---,0.00,VWS V14.01,2013-01-31 05:22:00,
2013-01-31 00:23:00,31.0,24.6,29.76,SW,233,11.0,11.0,77,0.00,,---,0.00,VWS V14.01,2013-01-31 05:23:00,
2013-01-31 00:24:00,31.0,24.6,29.77,West,271,8.0,9.0,77,0.00,,---,0.00,VWS V14.01,2013-01-31 05:24:00,
2013-01-31 00:25:00,30.9,24.2,29.77,NW,316,7.0,10.0,76,0.00,,---,0.00,VWS V14.01,2013-01-31 05:25:00,
2013-01-31 00:26:00,31.0,24.3,29.77,North,349,4.0,19.0,76,0.00,,---,0.00,VWS V14.01,2013-01-31 05:26:00,
2013-01-31 00:27:00,30.9,24.2,29.77,WNW,298,12.0,14.0,76,0.00,,---,0.00,VWS V14.01,2013-01-31 05:27:00,
2013-01-31 00:28:00,30.9,23.9,29.77,West,268,8.0,13.0,75,0.00,,---,0.00,VWS V14.01,2013-01-31 05:28:00,
2013-01-31 00:29:00,30.9,23.9,29.77,NW,304,4.0,15.0,75,0.00,,---,0.00,VWS V14.01,2013-01-31 05:29:00,
2013-01-31 00:30:00,30.9,24.2,29.77,West,275,8.0,12.0,76,0.00,,---,0.00,VWS V14.01,2013-01-31 05:30:00,
2013-01-31 00:31:00,30.9,24.2,29.77,WSW,247,2.0,9.0,76,0.00,,---,0.00,VWS V14.01,2013-01-31 05:31:00,
2013-01-31 00:32:00,30.9,24.2,29.77,WSW,242,3.0,7.0,76,0.00,,---,0.00,VWS V14.01,2013-01-31 05:32:00,
2013-01-31 00:33:00,30.9,24.5,29.77,WNW,298,2.0,5.0,77,0.00,,---,0.00,VWS V14.01,2013-01-31 05:33:00,
2013-01-31 00:34:00,30.9,24.5,29.78,West,274,5.0,20.0,77,0.00,,---,0.00,VWS V14.01,2013-01-31 05:34:00,
2013-01-31 00:35:00,30.9,24.5,29.78,West,273,16.0,16.0,77,0.00,,---,0.00,VWS V14.01,2013-01-31 05:35:00,
2013-01-31 00:36:00,30.8,24.1,29.77,SSW,194,9.0,17.0,76,0.00,,---,0.00,VWS V14.01,2013-01-31 05:36:00,
2013-01-31 00:37:00,30.8,24.1,29.77,WSW,240,10.0,13.0,76,0.00,,---,0.00,VWS V14.01,2013-01-31 05:37:00,
2013-01-31 00:38:00,30.8,24.1,29.78,NW,324,10.0,15.0,76,0.00,,---,0.00,VWS V14.01,2013-01-31 05:38:00,
2013-01-31 00:39:00,30.7,24.0,29.78,SSW,205,9.0,16.0,76,0.00,,---,0.00,VWS V14.01,2013-01-31 05:39:00,
2013-01-31 00:40:00,30.7,24.4,29.78,West,266,11.0,16.0,77,0.00,,---,0.00,VWS V14.01,2013-01-31 05:40:00,
2013-01-31 00:41:00,30.6,24.3,29.78,WNW,288,10.0,16.0,77,0.00,,---,0.00,VWS V14.01,2013-01-31 05:41:00,
2013-01-31 00:42:00,30.6,24.3,29.78,West,281,6.0,13.0,77,0.00,,---,0.00,VWS V14.01,2013-01-31 05:42:00,
2013-01-31 00:43:00,30.6,24.3,29.78,WNW,285,7.0,9.0,77,0.00,,---,0.00,VWS V14.01,2013-01-31 05:43:00,
2013-01-31 00:44:00,30.6,24.3,29.79,WSW,253,8.0,11.0,77,0.00,,---,0.00,VWS V14.01,2013-01-31 05:44:00,
2013-01-31 00:45:00,30.5,24.2,29.79,West,273,4.0,13.0,77,0.00,,---,0.00,VWS V14.01,2013-01-31 05:45:00,
2013-01-31 00:46:00,30.5,24.2,29.79,NW,306,6.0,10.0,77,0.00,,---,0.00,VWS V14.01,2013-01-31 05:46:00,
2013-01-31 00:47:00,30.5,24.5,29.79,WNW,292,11.0,17.0,78,0.00,,---,0.00,VWS V14.01,2013-01-31 05:47:00,
2013-01-31 00:48:00,30.5,24.2,29.79,West,261,5.0,14.0,77,0.00,,---,0.00,VWS V14.01,2013-01-31 05:48:00,
2013-01-31 00:49:00,30.5,24.2,29.79,West,267,5.0,14.0,77,0.00,,---,0.00,VWS V14.01,2013-01-31 05:49:00,
2013-01-31 00:50:00,30.4,24.1,29.79,West,273,3.0,7.0,77,0.00,,---,0.00,VWS V14.01,2013-01-31 05:50:00,
2013-01-31 00:51:00,30.4,24.1,29.79,WSW,249,7.0,18.0,77,0.00,,---,0.00,VWS V14.01,2013-01-31 05:51:00,
2013-01-31 00:52:00,30.4,23.8,29.79,WNW,284,12.0,15.0,76,0.00,,---,0.00,VWS V14.01,2013-01-31 05:52:00,
2013-01-31 00:53:00,30.4,23.8,29.79,NW,323,9.0,15.0,76,0.00,,---,0.00,VWS V14.01,2013-01-31 05:53:00,
2013-01-31 00:54:00,30.4,23.8,29.79,West,268,14.0,17.0,76,0.00,,---,0.00,VWS V14.01,2013-01-31 05:54:00,
2013-01-31 00:55:00,30.3,23.7,29.79,WSW,256,5.0,14.0,76,0.00,,---,0.00,VWS V14.01,2013-01-31 05:55:00,
2013-01-31 00:56:00,30.3,23.7,29.79,NW,309,12.0,14.0,76,0.00,,---,0.00,VWS V14.01,2013-01-31 05:56:00,
2013-01-31 00:57:00,30.3,23.7,29.80,West,268,4.0,12.0,76,0.00,,---,0.00,VWS V14.01,2013-01-31 05:57:00,
2013-01-31 00:58:00,30.3,23.7,29.79,WNW,298,6.0,13.0,76,0.00,,---,0.00,VWS V14.01,2013-01-31 05:58:00,
2013-01-31 00:59:00,30.3,23.7,29.80,WNW,284,11.0,17.0,76,0.00,,---,0.00,VWS V14.01,2013-01-31 05:59:00,
2013-01-31 01:00:00,30.2,23.6,29.80,WSW,243,10.0,12.0,76,0.00,,---,0.00,VWS V14.01,2013-01-31 06:00:00,
2013-01-31 01:01:00,30.2,23.6,29.80,West,259,10.0,13.0,76,0.00,,---,0.00,VWS V14.01,2013-01-31 06:01:00,
2013-01-31 01:02:00,30.2,23.6,29.80,NW,323,8.0,12.0,76,0.00,,---,0.00,VWS V14.01,2013-01-31 06:02:00,
2013-01-31 01:03:00,30.2,23.6,29.80,NNW,340,8.0,12.0,76,0.00,,---,0.00,VWS V14.01,2013-01-31 06:03:00,
2013-01-31 01:04:00,30.2,23.2,29.80,WSW,245,12.0,28.0,75,0.00,,---,0.00,VWS V14.01,2013-01-31 06:04:00,
2013-01-31 01:05:00,30.2,22.9,29.80,WNW,291,9.0,15.0,74,0.00,,---,0.00,VWS V14.01,2013-01-31 06:05:00,
2013-01-31 01:06:00,30.1,22.8,29.80,WNW,291,9.0,22.0,74,0.00,,---,0.00,VWS V14.01,2013-01-31 06:06:00,
2013-01-31 01:07:00,30.1,22.8,29.80,WNW,290,13.0,13.0,74,0.00,,---,0.00,VWS V14.01,2013-01-31 06:07:00,
2013-01-31 01:08:00,30.1,22.8,29.81,NW,307,9.0,14.0,74,0.00,,---,0.00,VWS V14.01,2013-01-31 06:08:00,
2013-01-31 01:09:00,30.1,22.8,29.80,West,267,8.0,20.0,74,0.00,,---,0.00,VWS V14.01,2013-01-31 06:09:00,
2013-01-31 01:10:00,30.1,22.8,29.80,West,281,16.0,24.0,74,0.00,,---,0.00,VWS V14.01,2013-01-31 06:10:00,
2013-01-31 01:11:00,30.1,22.5,29.81,WSW,253,10.0,18.0,73,0.00,,---,0.00,VWS V14.01,2013-01-31 06:11:00,
2013-01-31 01:12:00,30.0,22.4,29.81,WNW,292,9.0,13.0,73,0.00,,---,0.00,VWS V14.01,2013-01-31 06:12:00,
2013-01-31 01:13:00,30.1,22.8,29.81,WNW,285,8.0,12.0,74,0.00,,---,0.00,VWS V14.01,2013-01-31 06:13:00,
2013-01-31 01:14:00,30.0,22.4,29.81,WNW,282,5.0,12.0,73,0.00,,---,0.00,VWS V14.01,2013-01-31 06:14:00,
2013-01-31 01:15:00,30.0,22.4,29.81,West,277,9.0,18.0,73,0.00,,---,0.00,VWS V14.01,2013-01-31 06:15:00,
2013-01-31 01:16:00,30.0,22.4,29.81,NW,321,6.0,18.0,73,0.00,,---,0.00,VWS V14.01,2013-01-31 06:16:00,
2013-01-31 01:17:00,30.0,22.4,29.81,NW,324,9.0,14.0,73,0.00,,---,0.00,VWS V14.01,2013-01-31 06:17:00,
2013-01-31 01:18:00,30.0,22.4,29.81,SW,236,14.0,19.0,73,0.00,,---,0.00,VWS V14.01,2013-01-31 06:18:00,
2013-01-31 01:19:00,29.9,22.0,29.81,SSW,211,12.0,14.0,72,0.00,,---,0.00,VWS V14.01,2013-01-31 06:19:00,
2013-01-31 01:20:00,29.9,22.3,29.81,WNW,285,9.0,13.0,73,0.00,,---,0.00,VWS V14.01,2013-01-31 06:20:00,
2013-01-31 01:21:00,29.9,22.3,29.82,WNW,298,8.0,17.0,73,0.00,,---,0.00,VWS V14.01,2013-01-31 06:21:00,
2013-01-31 01:22:00,29.8,21.9,29.82,West,266,5.0,14.0,72,0.00,,---,0.00,VWS V14.01,2013-01-31 06:22:00,
2013-01-31 01:23:00,29.8,21.9,29.82,WNW,294,5.0,15.0,72,0.00,,---,0.00,VWS V14.01,2013-01-31 06:23:00,
2013-01-31 01:24:00,29.8,22.2,29.82,WNW,301,12.0,16.0,73,0.00,,---,0.00,VWS V14.01,2013-01-31 06:24:00,
2013-01-31 01:25:00,29.8,22.2,29.82,WNW,292,9.0,13.0,73,0.00,,---,0.00,VWS V14.01,2013-01-31 06:25:00,
2013-01-31 01:26:00,29.8,22.2,29.82,SW,214,5.0,9.0,73,0.00,,---,0.00,VWS V14.01,2013-01-31 06:26:00,
2013-01-31 01:27:00,29.7,22.1,29.82,SW,233,10.0,10.0,73,0.00,,---,0.00,VWS V14.01,2013-01-31 06:27:00,
2013-01-31 01:28:00,29.7,22.1,29.82,West,267,7.0,14.0,73,0.00,,---,0.00,VWS V14.01,2013-01-31 06:28:00,
2013-01-31 01:29:00,29.7,22.1,29.82,West,271,7.0,14.0,73,0.00,,---,0.00,VWS V14.01,2013-01-31 06:29:00,
2013-01-31 01:30:00,29.7,22.4,29.82,SW,234,7.0,11.0,74,0.00,,---,0.00,VWS V14.01,2013-01-31 06:30:00,
2013-01-31 01:31:00,29.7,22.4,29.83,West,275,10.0,14.0,74,0.00,,---,0.00,VWS V14.01,2013-01-31 06:31:00,
2013-01-31 01:32:00,29.7,22.4,29.83,South,174,6.0,11.0,74,0.00,,---,0.00,VWS V14.01,2013-01-31 06:32:00,
2013-01-31 01:33:00,29.7,22.1,29.82,West,269,6.0,8.0,73,0.00,,---,0.00,VWS V14.01,2013-01-31 06:33:00,
2013-01-31 01:34:00,29.7,22.1,29.82,WNW,294,7.0,10.0,73,0.00,,---,0.00,VWS V14.01,2013-01-31 06:34:00,
2013-01-31 01:35:00,29.6,21.7,29.83,WNW,285,3.0,9.0,72,0.00,,---,0.00,VWS V14.01,2013-01-31 06:35:00,
2013-01-31 01:36:00,29.6,21.7,29.83,WNW,288,9.0,14.0,72,0.00,,---,0.00,VWS V14.01,2013-01-31 06:36:00,
2013-01-31 01:37:00,29.6,21.0,29.83,WSW,257,17.0,21.0,70,0.00,,---,0.00,VWS V14.01,2013-01-31 06:37:00,
2013-01-31 01:38:00,29.6,20.7,29.82,West,266,5.0,21.0,69,0.00,,---,0.00,VWS V14.01,2013-01-31 06:38:00,
2013-01-31 01:39:00,29.6,20.7,29.83,WSW,247,16.0,18.0,69,0.00,,---,0.00,VWS V14.01,2013-01-31 06:39:00,
2013-01-31 01:40:00,29.6,20.4,29.83,NW,319,7.0,14.0,68,0.00,,---,0.00,VWS V14.01,2013-01-31 06:40:00,
2013-01-31 01:41:00,29.6,20.7,29.83,WSW,257,10.0,10.0,69,0.00,,---,0.00,VWS V14.01,2013-01-31 06:41:00,
2013-01-31 01:42:00,29.6,20.4,29.83,WNW,282,8.0,19.0,68,0.00,,---,0.00,VWS V14.01,2013-01-31 06:42:00,
2013-01-31 01:43:00,29.6,20.4,29.83,WSW,256,6.0,16.0,68,0.00,,---,0.00,VWS V14.01,2013-01-31 06:43:00,
2013-01-31 01:44:00,29.6,20.7,29.83,WNW,295,3.0,13.0,69,0.00,,---,0.00,VWS V14.01,2013-01-31 06:44:00,
2013-01-31 01:45:00,29.5,20.9,29.83,WSW,254,9.0,11.0,70,0.00,,---,0.00,VWS V14.01,2013-01-31 06:45:00,
2013-01-31 01:46:00,29.5,20.9,29.83,West,260,10.0,12.0,70,0.00,,---,0.00,VWS V14.01,2013-01-31 06:46:00,
2013-01-31 01:47:00,29.5,20.9,29.83,WNW,301,5.0,12.0,70,0.00,,---,0.00,VWS V14.01,2013-01-31 06:47:00,
2013-01-31 01:48:00,29.5,20.9,29.83,NNW,327,7.0,10.0,70,0.00,,---,0.00,VWS V14.01,2013-01-31 06:48:00,
2013-01-31 01:49:00,29.4,20.8,29.83,West,277,9.0,11.0,70,0.00,,---,0.00,VWS V14.01,2013-01-31 06:49:00,
2013-01-31 01:50:00,29.4,20.8,29.83,West,266,9.0,15.0,70,0.00,,---,0.00,VWS V14.01,2013-01-31 06:50:00,
2013-01-31 01:51:00,29.4,20.8,29.83,WSW,252,6.0,9.0,70,0.00,,---,0.00,VWS V14.01,2013-01-31 06:51:00,
2013-01-31 01:52:00,29.3,20.8,29.83,West,273,6.0,11.0,70,0.00,,---,0.00,VWS V14.01,2013-01-31 06:52:00,
2013-01-31 01:53:00,29.3,20.7,29.83,West,275,16.0,16.0,70,0.00,,---,0.00,VWS V14.01,2013-01-31 06:53:00,
2013-01-31 01:54:00,29.3,20.8,29.83,WNW,296,4.0,20.0,70,0.00,,---,0.00,VWS V14.01,2013-01-31 06:54:00,
2013-01-31 01:55:00,29.2,21.0,29.83,WSW,246,12.0,13.0,71,0.00,,---,0.00,VWS V14.01,2013-01-31 06:55:00,
2013-01-31 01:56:00,29.2,21.0,29.84,West,274,7.0,14.0,71,0.00,,---,0.00,VWS V14.01,2013-01-31 06:56:00,
2013-01-31 01:57:00,29.2,20.6,29.83,WNW,283,5.0,12.0,70,0.00,,---,0.00,VWS V14.01,2013-01-31 06:57:00,
2013-01-31 01:58:00,29.1,20.9,29.84,West,266,10.0,13.0,71,0.00,,---,0.00,VWS V14.01,2013-01-31 06:58:00,
2013-01-31 01:59:00,29.1,20.9,29.84,WSW,254,7.0,11.0,71,0.00,,---,0.00,VWS V14.01,2013-01-31 06:59:00,
2013-01-31 02:00:00,29.1,20.9,29.84,NW,312,6.0,13.0,71,0.00,,---,0.00,VWS V14.01,2013-01-31 07:00:00,
2013-01-31 02:01:00,29.1,20.5,29.84,WSW,256,10.0,11.0,70,0.00,,---,0.00,VWS V14.01,2013-01-31 07:01:00,
2013-01-31 02:02:00,29.1,20.5,29.84,SW,225,5.0,16.0,70,0.00,,---,0.00,VWS V14.01,2013-01-31 07:02:00,
2013-01-31 02:03:00,29.0,20.5,29.84,NW,305,8.0,9.0,70,0.00,,---,0.00,VWS V14.01,2013-01-31 07:03:00,
2013-01-31 02:04:00,29.0,20.1,29.84,WNW,301,11.0,15.0,69,0.00,,---,0.00,VWS V14.01,2013-01-31 07:04:00,
2013-01-31 02:05:00,29.0,19.8,29.84,WNW,297,11.0,16.0,68,0.00,,---,0.00,VWS V14.01,2013-01-31 07:05:00,
2013-01-31 02:06:00,29.0,19.8,29.84,West,277,8.0,14.0,68,0.00,,---,0.00,VWS V14.01,2013-01-31 07:06:00,
2013-01-31 02:07:00,29.0,19.8,29.84,WSW,246,14.0,18.0,68,0.00,,---,0.00,VWS V14.01,2013-01-31 07:07:00,
2013-01-31 02:08:00,29.0,19.8,29.84,NNW,338,10.0,14.0,68,0.00,,---,0.00,VWS V14.01,2013-01-31 07:08:00,
2013-01-31 02:09:00,29.0,19.8,29.84,WSW,237,13.0,17.0,68,0.00,,---,0.00,VWS V14.01,2013-01-31 07:09:00,
2013-01-31 02:10:00,28.9,19.7,29.84,SW,216,15.0,21.0,68,0.00,,---,0.00,VWS V14.01,2013-01-31 07:10:00,
2013-01-31 02:11:00,28.9,19.7,29.84,NW,324,15.0,18.0,68,0.00,,---,0.00,VWS V14.01,2013-01-31 07:11:00,
2013-01-31 02:12:00,28.9,19.7,29.84,NW,311,11.0,20.0,68,0.00,,---,0.00,VWS V14.01,2013-01-31 07:12:00,
2013-01-31 02:13:00,28.9,19.7,29.85,WSW,247,9.0,13.0,68,0.00,,---,0.00,VWS V14.01,2013-01-31 07:13:00,
2013-01-31 02:14:00,28.9,20.0,29.85,WNW,283,13.0,17.0,69,0.00,,---,0.00,VWS V14.01,2013-01-31 07:14:00,
2013-01-31 02:15:00,28.8,19.6,29.85,West,261,8.0,16.0,68,0.00,,---,0.00,VWS V14.01,2013-01-31 07:15:00,
2013-01-31 02:16:00,28.8,19.9,29.85,WNW,299,9.0,14.0,69,0.00,,---,0.00,VWS V14.01,2013-01-31 07:16:00,
2013-01-31 02:17:00,28.8,19.9,29.85,WNW,294,8.0,15.0,69,0.00,,---,0.00,VWS V14.01,2013-01-31 07:17:00,
2013-01-31 02:18:00,28.8,19.9,29.85,WNW,294,11.0,12.0,69,0.00,,---,0.00,VWS V14.01,2013-01-31 07:18:00,
2013-01-31 02:19:00,28.8,19.9,29.85,WSW,246,14.0,14.0,69,0.00,,---,0.00,VWS V14.01,2013-01-31 07:19:00,
2013-01-31 02:20:00,28.8,19.9,29.85,West,280,12.0,18.0,69,0.00,,---,0.00,VWS V14.01,2013-01-31 07:20:00,
2013-01-31 02:21:00,28.7,19.8,29.85,WSW,240,9.0,13.0,69,0.00,,---,0.00,VWS V14.01,2013-01-31 07:21:00,
2013-01-31 02:22:00,28.8,20.3,29.85,NW,311,6.0,11.0,70,0.00,,---,0.00,VWS V14.01,2013-01-31 07:22:00,
2013-01-31 02:23:00,28.7,20.2,29.85,WSW,253,7.0,7.0,70,0.00,,---,0.00,VWS V14.01,2013-01-31 07:23:00,
2013-01-31 02:24:00,28.7,20.2,29.85,West,279,5.0,15.0,70,0.00,,---,0.00,VWS V14.01,2013-01-31 07:24:00,
2013-01-31 02:25:00,28.7,20.2,29.86,West,265,10.0,17.0,70,0.00,,---,0.00,VWS V14.01,2013-01-31 07:25:00,
2013-01-31 02:26:00,28.7,20.2,29.86,WNW,292,9.0,14.0,70,0.00,,---,0.00,VWS V14.01,2013-01-31 07:26:00,
2013-01-31 02:27:00,28.7,19.8,29.86,West,278,9.0,10.0,69,0.00,,---,0.00,VWS V14.01,2013-01-31 07:27:00,
2013-01-31 02:28:00,28.6,20.1,29.86,WSW,242,4.0,10.0,70,0.00,,---,0.00,VWS V14.01,2013-01-31 07:28:00,
2013-01-31 02:29:00,28.6,19.7,29.86,West,268,18.0,18.0,69,0.00,,---,0.00,VWS V14.01,2013-01-31 07:29:00,
2013-01-31 02:30:00,28.7,19.5,29.85,West,263,10.0,18.0,68,0.00,,---,0.00,VWS V14.01,2013-01-31 07:30:00,
2013-01-31 02:31:00,28.6,19.7,29.86,WSW,245,6.0,11.0,69,0.00,,---,0.00,VWS V14.01,2013-01-31 07:31:00,
2013-01-31 02:32:00,28.6,19.7,29.85,SW,223,4.0,9.0,69,0.00,,---,0.00,VWS V14.01,2013-01-31 07:32:00,
2013-01-31 02:33:00,28.6,20.1,29.85,WSW,246,6.0,7.0,70,0.00,,---,0.00,VWS V14.01,2013-01-31 07:33:00,
2013-01-31 02:34:00,28.6,19.7,29.85,NW,318,14.0,14.0,69,0.00,,---,0.00,VWS V14.01,2013-01-31 07:34:00,
2013-01-31 02:35:00,28.6,19.4,29.85,West,259,7.0,14.0,68,0.00,,---,0.00,VWS V14.01,2013-01-31 07:35:00,
2013-01-31 02:36:00,28.6,19.4,29.86,West,270,9.0,15.0,68,0.00,,---,0.00,VWS V14.01,2013-01-31 07:36:00,
2013-01-31 02:37:00,28.6,19.4,29.85,WNW,287,20.0,20.0,68,0.00,,---,0.00,VWS V14.01,2013-01-31 07:37:00,
2013-01-31 02:38:00,28.5,19.0,29.85,NW,322,10.0,18.0,67,0.00,,---,0.00,VWS V14.01,2013-01-31 07:38:00,
2013-01-31 02:39:00,28.5,19.3,29.86,NW,317,3.0,9.0,68,0.00,,---,0.00,VWS V14.01,2013-01-31 07:39:00,
2013-01-31 02:40:00,28.5,19.3,29.86,SSW,192,7.0,15.0,68,0.00,,---,0.00,VWS V14.01,2013-01-31 07:40:00,
2013-01-31 02:41:00,28.5,19.3,29.86,WNW,301,9.0,15.0,68,0.00,,---,0.00,VWS V14.01,2013-01-31 07:41:00,
2013-01-31 02:42:00,28.5,19.3,29.86,SW,230,9.0,11.0,68,0.00,,---,0.00,VWS V14.01,2013-01-31 07:42:00,
2013-01-31 02:43:00,28.5,19.3,29.86,West,271,14.0,14.0,68,0.00,,---,0.00,VWS V14.01,2013-01-31 07:43:00,
2013-01-31 02:44:00,28.5,19.0,29.86,WSW,256,6.0,15.0,67,0.00,,---,0.00,VWS V14.01,2013-01-31 07:44:00,
2013-01-31 02:45:00,28.5,19.0,29.86,WNW,300,7.0,13.0,67,0.00,,---,0.00,VWS V14.01,2013-01-31 07:45:00,
2013-01-31 02:46:00,28.5,19.0,29.86,West,280,7.0,16.0,67,0.00,,---,0.00,VWS V14.01,2013-01-31 07:46:00,
2013-01-31 02:47:00,28.5,19.3,29.86,SW,228,4.0,16.0,68,0.00,,---,0.00,VWS V14.01,2013-01-31 07:47:00,
2013-01-31 02:48:00,28.4,19.2,29.86,West,271,4.0,8.0,68,0.00,,---,0.00,VWS V14.01,2013-01-31 07:48:00,
2013-01-31 02:49:00,28.4,19.2,29.86,West,259,20.0,20.0,68,0.00,,---,0.00,VWS V14.01,2013-01-31 07:49:00,
2013-01-31 02:50:00,28.4,19.2,29.86,SW,218,8.0,17.0,68,0.00,,---,0.00,VWS V14.01,2013-01-31 07:50:00,
2013-01-31 02:51:00,28.4,19.2,29.87,WNW,294,10.0,14.0,68,0.00,,---,0.00,VWS V14.01,2013-01-31 07:51:00,
2013-01-31 02:52:00,28.4,19.2,29.87,West,277,9.0,11.0,68,0.00,,---,0.00,VWS V14.01,2013-01-31 07:52:00,
2013-01-31 02:53:00,28.5,19.3,29.87,SW,233,10.0,17.0,68,0.00,,---,0.00,VWS V14.01,2013-01-31 07:53:00,
2013-01-31 02:54:00,28.4,19.2,29.87,WNW,290,9.0,17.0,68,0.00,,---,0.00,VWS V14.01,2013-01-31 07:54:00,
2013-01-31 02:55:00,28.4,19.2,29.87,West,268,7.0,14.0,68,0.00,,---,0.00,VWS V14.01,2013-01-31 07:55:00,
2013-01-31 02:56:00,28.4,19.2,29.87,West,280,6.0,15.0,68,0.00,,---,0.00,VWS V14.01,2013-01-31 07:56:00,
2013-01-31 02:57:00,28.5,19.3,29.87,West,278,7.0,11.0,68,0.00,,---,0.00,VWS V14.01,2013-01-31 07:57:00,
2013-01-31 02:58:00,28.4,19.2,29.87,SW,219,9.0,19.0,68,0.00,,---,0.00,VWS V14.01,2013-01-31 07:58:00,
2013-01-31 02:59:00,28.4,19.2,29.87,NW,308,7.0,12.0,68,0.00,,---,0.00,VWS V14.01,2013-01-31 07:59:00,
2013-01-31 03:00:00,28.4,19.5,29.87,WSW,249,8.0,14.0,69,0.00,,---,0.00,VWS V14.01,2013-01-31 08:00:00,
2013-01-31 03:01:00,28.4,19.2,29.87,WNW,284,12.0,13.0,68,0.00,,---,0.00,VWS V14.01,2013-01-31 08:01:00,
2013-01-31 03:02:00,28.4,19.2,29.86,West,275,7.0,11.0,68,0.00,,---,0.00,VWS V14.01,2013-01-31 08:02:00,
2013-01-31 03:03:00,28.4,19.5,29.86,WNW,302,9.0,15.0,69,0.00,,---,0.00,VWS V14.01,2013-01-31 08:03:00,
2013-01-31 03:04:00,28.4,19.5,29.86,NW,321,10.0,12.0,69,0.00,,---,0.00,VWS V14.01,2013-01-31 08:04:00,
2013-01-31 03:05:00,28.4,19.5,29.86,WNW,301,10.0,14.0,69,0.00,,---,0.00,VWS V14.01,2013-01-31 08:05:00,
2013-01-31 03:06:00,28.4,19.2,29.86,NW,318,7.0,14.0,68,0.00,,---,0.00,VWS V14.01,2013-01-31 08:06:00,
2013-01-31 03:07:00,28.4,19.5,29.86,West,275,7.0,12.0,69,0.00,,---,0.00,VWS V14.01,2013-01-31 08:07:00,
2013-01-31 03:08:00,28.4,19.5,29.86,WNW,294,7.0,12.0,69,0.00,,---,0.00,VWS V14.01,2013-01-31 08:08:00,
2013-01-31 03:09:00,28.3,19.5,29.86,West,273,9.0,9.0,69,0.00,,---,0.00,VWS V14.01,2013-01-31 08:09:00,
2013-01-31 03:10:00,28.4,19.5,29.86,WSW,250,6.0,9.0,69,0.00,,---,0.00,VWS V14.01,2013-01-31 08:10:00,
2013-01-31 03:11:00,28.4,19.5,29.86,WNW,294,9.0,9.0,69,0.00,,---,0.00,VWS V14.01,2013-01-31 08:11:00,
2013-01-31 03:12:00,28.3,19.5,29.86,WSW,249,2.0,9.0,69,0.00,,---,0.00,VWS V14.01,2013-01-31 08:12:00,
2013-01-31 03:13:00,28.4,19.5,29.86,WSW,256,5.0,5.0,69,0.00,,---,0.00,VWS V14.01,2013-01-31 08:13:00,
2013-01-31 03:14:00,28.4,19.9,29.86,WNW,284,5.0,9.0,70,0.00,,---,0.00,VWS V14.01,2013-01-31 08:14:00,
2013-01-31 03:15:00,28.4,19.9,29.87,SW,232,8.0,10.0,70,0.00,,---,0.00,VWS V14.01,2013-01-31 08:15:00,
2013-01-31 03:17:00,28.4,19.5,29.87,West,271,4.0,9.0,69,0.00,,---,0.00,VWS V14.01,2013-01-31 08:17:00,
2013-01-31 03:18:00,28.3,19.8,29.87,WNW,293,3.0,4.0,70,0.00,,---,0.00,VWS V14.01,2013-01-31 08:18:00,
2013-01-31 03:19:00,28.4,19.9,29.87,NW,304,9.0,11.0,70,0.00,,---,0.00,VWS V14.01,2013-01-31 08:19:00,
2013-01-31 03:20:00,28.3,19.8,29.87,West,264,3.0,10.0,70,0.00,,---,0.00,VWS V14.01,2013-01-31 08:20:00,
2013-01-31 03:21:00,28.4,19.9,29.87,NW,315,2.0,11.0,70,0.00,,---,0.00,VWS V14.01,2013-01-31 08:21:00,
2013-01-31 03:22:00,28.3,19.8,29.87,WNW,284,4.0,10.0,70,0.00,,---,0.00,VWS V14.01,2013-01-31 08:22:00,
2013-01-31 03:23:00,28.3,20.1,29.87,WSW,256,3.0,6.0,71,0.00,,---,0.00,VWS V14.01,2013-01-31 08:23:00,
2013-01-31 03:24:00,28.3,20.1,29.87,West,266,3.0,7.0,71,0.00,,---,0.00,VWS V14.01,2013-01-31 08:24:00,
2013-01-31 03:25:00,28.3,20.1,29.87,WNW,294,6.0,11.0,71,0.00,,---,0.00,VWS V14.01,2013-01-31 08:25:00,
2013-01-31 03:26:00,28.3,20.1,29.87,WNW,289,4.0,9.0,71,0.00,,---,0.00,VWS V14.01,2013-01-31 08:26:00,
2013-01-31 03:27:00,28.3,20.1,29.87,West,260,7.0,11.0,71,0.00,,---,0.00,VWS V14.01,2013-01-31 08:27:00,
2013-01-31 03:28:00,28.3,20.1,29.87,South,176,6.0,6.0,71,0.00,,---,0.00,VWS V14.01,2013-01-31 08:28:00,
2013-01-31 03:29:00,28.3,20.4,29.87,WNW,287,7.0,9.0,72,0.00,,---,0.00,VWS V14.01,2013-01-31 08:29:00,
2013-01-31 03:30:00,28.3,20.1,29.87,NW,313,2.0,14.0,71,0.00,,---,0.00,VWS V14.01,2013-01-31 08:30:00,
2013-01-31 03:31:00,28.3,20.4,29.87,West,267,4.0,6.0,72,0.00,,---,0.00,VWS V14.01,2013-01-31 08:31:00,
2013-01-31 03:32:00,28.3,20.4,29.87,WNW,285,3.0,6.0,72,0.00,,---,0.00,VWS V14.01,2013-01-31 08:32:00,
2013-01-31 03:33:00,28.3,20.4,29.87,West,280,6.0,6.0,72,0.00,,---,0.00,VWS V14.01,2013-01-31 08:33:00,
2013-01-31 03:34:00,28.3,20.4,29.87,West,261,6.0,7.0,72,0.00,,---,0.00,VWS V14.01,2013-01-31 08:34:00,
2013-01-31 03:35:00,28.3,20.8,29.87,WSW,254,5.0,7.0,73,0.00,,---,0.00,VWS V14.01,2013-01-31 08:35:00,
2013-01-31 03:36:00,28.3,20.4,29.87,SW,233,10.0,10.0,72,0.00,,---,0.00,VWS V14.01,2013-01-31 08:36:00,
2013-01-31 03:37:00,28.3,20.4,29.87,WNW,301,9.0,13.0,72,0.00,,---,0.00,VWS V14.01,2013-01-31 08:37:00,
2013-01-31 03:38:00,28.3,20.4,29.87,West,271,6.0,10.0,72,0.00,,---,0.00,VWS V14.01,2013-01-31 08:38:00,
2013-01-31 03:39:00,28.3,20.4,29.87,West,260,3.0,14.0,72,0.00,,---,0.00,VWS V14.01,2013-01-31 08:39:00,
2013-01-31 03:40:00,28.3,20.4,29.87,SW,233,4.0,12.0,72,0.00,,---,0.00,VWS V14.01,2013-01-31 08:40:00,
2013-01-31 03:41:00,28.3,20.8,29.88,WSW,241,7.0,15.0,73,0.00,,---,0.00,VWS V14.01,2013-01-31 08:41:00,
2013-01-31 03:42:00,28.3,20.8,29.88,SW,236,6.0,8.0,73,0.00,,---,0.00,VWS V14.01,2013-01-31 08:42:00,
2013-01-31 03:43:00,28.3,20.8,29.87,West,260,3.0,5.0,73,0.00,,---,0.00,VWS V14.01,2013-01-31 08:43:00,
2013-01-31 03:44:00,28.3,20.8,29.88,NW,326,5.0,8.0,73,0.00,,---,0.00,VWS V14.01,2013-01-31 08:44:00,
2013-01-31 03:45:00,28.3,20.8,29.88,West,266,3.0,9.0,73,0.00,,---,0.00,VWS V14.01,2013-01-31 08:45:00,
2013-01-31 03:46:00,28.3,20.8,29.88,West,281,5.0,10.0,73,0.00,,---,0.00,VWS V14.01,2013-01-31 08:46:00,
2013-01-31 03:47:00,28.3,20.8,29.88,NW,309,9.0,10.0,73,0.00,,---,0.00,VWS V14.01,2013-01-31 08:47:00,
2013-01-31 03:48:00,28.3,20.8,29.87,SW,229,5.0,12.0,73,0.00,,---,0.00,VWS V14.01,2013-01-31 08:48:00,
2013-01-31 03:49:00,28.3,20.8,29.88,West,281,6.0,8.0,73,0.00,,---,0.00,VWS V14.01,2013-01-31 08:49:00,
2013-01-31 03:50:00,28.2,20.7,29.88,NW,306,1.0,12.0,73,0.00,,---,0.00,VWS V14.01,2013-01-31 08:50:00,
2013-01-31 03:51:00,28.2,21.0,29.88,NW,308,6.0,8.0,74,0.00,,---,0.00,VWS V14.01,2013-01-31 08:51:00,
2013-01-31 03:52:00,28.3,20.8,29.88,WNW,291,8.0,8.0,73,0.00,,---,0.00,VWS V14.01,2013-01-31 08:52:00,
2013-01-31 03:53:00,28.3,21.1,29.88,WNW,288,4.0,7.0,74,0.00,,---,0.00,VWS V14.01,2013-01-31 08:53:00,
2013-01-31 03:54:00,28.3,21.1,29.88,West,273,4.0,7.0,74,0.00,,---,0.00,VWS V14.01,2013-01-31 08:54:00,
2013-01-31 03:55:00,28.2,21.0,29.88,West,281,5.0,5.0,74,0.00,,---,0.00,VWS V14.01,2013-01-31 08:55:00,
2013-01-31 03:56:00,28.3,21.1,29.88,WNW,298,5.0,7.0,74,0.00,,---,0.00,VWS V14.01,2013-01-31 08:56:00,
2013-01-31 03:57:00,28.3,21.1,29.88,SW,228,2.0,7.0,74,0.00,,---,0.00,VWS V14.01,2013-01-31 08:57:00,
2013-01-31 03:58:00,28.2,21.0,29.88,WNW,298,5.0,5.0,74,0.00,,---,0.00,VWS V14.01,2013-01-31 08:58:00,
2013-01-31 03:59:00,28.3,21.1,29.88,WSW,252,4.0,7.0,74,0.00,,---,0.00,VWS V14.01,2013-01-31 08:59:00,
2013-01-31 04:00:00,28.3,21.1,29.87,WNW,300,3.0,10.0,74,0.00,,---,0.00,VWS V14.01,2013-01-31 09:00:00,
2013-01-31 04:01:00,28.2,21.0,29.87,SSW,212,3.0,7.0,74,0.00,,---,0.00,VWS V14.01,2013-01-31 09:01:00,
2013-01-31 04:02:00,28.2,21.0,29.87,WNW,291,7.0,9.0,74,0.00,,---,0.00,VWS V14.01,2013-01-31 09:02:00,
2013-01-31 04:03:00,28.2,21.0,29.87,WNW,294,4.0,11.0,74,0.00,,---,0.00,VWS V14.01,2013-01-31 09:03:00,
2013-01-31 04:04:00,28.2,20.7,29.88,West,266,6.0,13.0,73,0.00,,---,0.00,VWS V14.01,2013-01-31 09:04:00,
2013-01-31 04:05:00,28.3,20.4,29.87,West,267,3.0,14.0,72,0.00,,---,0.00,VWS V14.01,2013-01-31 09:05:00,
2013-01-31 04:06:00,28.3,20.4,29.87,West,277,3.0,6.0,72,0.00,,---,0.00,VWS V14.01,2013-01-31 09:06:00,
2013-01-31 04:07:00,28.3,20.4,29.88,WNW,283,5.0,9.0,72,0.00,,---,0.00,VWS V14.01,2013-01-31 09:07:00,
2013-01-31 04:08:00,28.3,20.4,29.88,WSW,245,6.0,7.0,72,0.00,,---,0.00,VWS V14.01,2013-01-31 09:08:00,
2013-01-31 04:09:00,28.3,20.1,29.87,NW,322,5.0,10.0,71,0.00,,---,0.00,VWS V14.01,2013-01-31 09:09:00,
2013-01-31 04:10:00,28.3,20.1,29.87,WSW,254,5.0,8.0,71,0.00,,---,0.00,VWS V14.01,2013-01-31 09:10:00,
2013-01-31 04:11:00,28.3,20.1,29.87,WSW,254,9.0,11.0,71,0.00,,---,0.00,VWS V14.01,2013-01-31 09:11:00,
2013-01-31 04:12:00,28.3,19.8,29.87,WSW,245,12.0,14.0,70,0.00,,---,0.00,VWS V14.01,2013-01-31 09:12:00,
2013-01-31 04:13:00,28.3,19.5,29.87,NW,305,14.0,14.0,69,0.00,,---,0.00,VWS V14.01,2013-01-31 09:13:00,
2013-01-31 04:14:00,28.3,19.1,29.87,WNW,302,7.0,17.0,68,0.00,,---,0.00,VWS V14.01,2013-01-31 09:14:00,
2013-01-31 04:15:00,28.3,19.1,29.87,SW,227,12.0,12.0,68,0.00,,---,0.00,VWS V14.01,2013-01-31 09:15:00,
2013-01-31 04:16:00,28.3,19.1,29.87,WNW,301,9.0,13.0,68,0.00,,---,0.00,VWS V14.01,2013-01-31 09:16:00,
2013-01-31 04:17:00,28.3,19.1,29.87,SSW,208,6.0,12.0,68,0.00,,---,0.00,VWS V14.01,2013-01-31 09:17:00,
2013-01-31 04:18:00,28.3,19.1,29.87,SW,233,5.0,11.0,68,0.00,,---,0.00,VWS V14.01,2013-01-31 09:18:00,
2013-01-31 04:19:00,28.2,19.0,29.87,WNW,298,9.0,15.0,68,0.00,,---,0.00,VWS V14.01,2013-01-31 09:19:00,
2013-01-31 04:20:00,28.2,19.0,29.88,WSW,246,4.0,9.0,68,0.00,,---,0.00,VWS V14.01,2013-01-31 09:20:00,
2013-01-31 04:21:00,28.2,19.4,29.88,West,280,4.0,9.0,69,0.00,,---,0.00,VWS V14.01,2013-01-31 09:21:00,
2013-01-31 04:22:00,28.2,19.4,29.88,WNW,286,6.0,11.0,69,0.00,,---,0.00,VWS V14.01,2013-01-31 09:22:00,
2013-01-31 04:23:00,28.2,19.0,29.87,West,274,7.0,12.0,68,0.00,,---,0.00,VWS V14.01,2013-01-31 09:23:00,
2013-01-31 04:24:00,28.2,19.4,29.88,WSW,257,7.0,16.0,69,0.00,,---,0.00,VWS V14.01,2013-01-31 09:24:00,
2013-01-31 04:25:00,28.2,19.0,29.88,WNW,292,5.0,12.0,68,0.00,,---,0.00,VWS V14.01,2013-01-31 09:25:00,
2013-01-31 04:26:00,28.2,19.0,29.88,WNW,282,6.0,9.0,68,0.00,,---,0.00,VWS V14.01,2013-01-31 09:26:00,
2013-01-31 04:27:00,28.2,19.4,29.88,West,281,2.0,8.0,69,0.00,,---,0.00,VWS V14.01,2013-01-31 09:27:00,
2013-01-31 04:28:00,28.2,19.4,29.88,West,280,7.0,7.0,69,0.00,,---,0.00,VWS V14.01,2013-01-31 09:28:00,
2013-01-31 04:29:00,28.1,19.3,29.88,WSW,242,7.0,11.0,69,0.00,,---,0.00,VWS V14.01,2013-01-31 09:29:00,
2013-01-31 04:30:00,28.1,19.3,29.88,NW,305,17.0,17.0,69,0.00,,---,0.00,VWS V14.01,2013-01-31 09:30:00,
2013-01-31 04:31:00,28.1,19.3,29.88,NW,320,6.0,13.0,69,0.00,,---,0.00,VWS V14.01,2013-01-31 09:31:00,
2013-01-31 04:32:00,28.1,19.3,29.88,WNW,282,5.0,13.0,69,0.00,,---,0.00,VWS V14.01,2013-01-31 09:32:00,
2013-01-31 04:33:00,28.1,19.3,29.88,WNW,290,6.0,9.0,69,0.00,,---,0.00,VWS V14.01,2013-01-31 09:33:00,
2013-01-31 04:34:00,28.0,19.2,29.88,West,266,7.0,17.0,69,0.00,,---,0.00,VWS V14.01,2013-01-31 09:34:00,
2013-01-31 04:35:00,28.0,19.2,29.88,West,280,7.0,12.0,69,0.00,,---,0.00,VWS V14.01,2013-01-31 09:35:00,
2013-01-31 04:36:00,27.9,19.1,29.88,WNW,294,6.0,9.0,69,0.00,,---,0.00,VWS V14.01,2013-01-31 09:36:00,
2013-01-31 04:37:00,27.9,19.4,29.88,SW,233,4.0,9.0,70,0.00,,---,0.00,VWS V14.01,2013-01-31 09:37:00,
2013-01-31 04:38:00,27.8,19.3,29.88,WNW,300,2.0,4.0,70,0.00,,---,0.00,VWS V14.01,2013-01-31 09:38:00,
2013-01-31 04:39:00,27.8,19.3,29.88,WNW,285,13.0,14.0,70,0.00,,---,0.00,VWS V14.01,2013-01-31 09:39:00,
2013-01-31 04:40:00,27.8,19.3,29.88,WNW,284,11.0,11.0,70,0.00,,---,0.00,VWS V14.01,2013-01-31 09:40:00,
2013-01-31 04:41:00,27.8,19.3,29.88,WNW,282,5.0,11.0,70,0.00,,---,0.00,VWS V14.01,2013-01-31 09:41:00,
2013-01-31 04:42:00,27.8,19.6,29.88,WSW,258,3.0,10.0,71,0.00,,---,0.00,VWS V14.01,2013-01-31 09:42:00,
2013-01-31 04:43:00,27.8,19.6,29.88,NNW,327,5.0,7.0,71,0.00,,---,0.00,VWS V14.01,2013-01-31 09:43:00,
2013-01-31 04:44:00,27.7,19.5,29.88,NNW,334,10.0,10.0,71,0.00,,---,0.00,VWS V14.01,2013-01-31 09:44:00,
2013-01-31 04:45:00,27.7,19.5,29.88,WSW,254,6.0,12.0,71,0.00,,---,0.00,VWS V14.01,2013-01-31 09:45:00,
2013-01-31 04:46:00,27.7,19.5,29.88,WNW,302,6.0,8.0,71,0.00,,---,0.00,VWS V14.01,2013-01-31 09:46:00,
2013-01-31 04:47:00,27.7,19.5,29.88,SW,222,6.0,10.0,71,0.00,,---,0.00,VWS V14.01,2013-01-31 09:47:00,
2013-01-31 04:48:00,27.7,19.5,29.88,SSW,197,4.0,6.0,71,0.00,,---,0.00,VWS V14.01,2013-01-31 09:48:00,
2013-01-31 04:49:00,27.7,19.9,29.88,WNW,299,5.0,6.0,72,0.00,,---,0.00,VWS V14.01,2013-01-31 09:49:00,
2013-01-31 04:50:00,27.7,19.9,29.88,WNW,282,5.0,8.0,72,0.00,,---,0.00,VWS V14.01,2013-01-31 09:50:00,
2013-01-31 04:51:00,27.8,19.6,29.88,WNW,290,2.0,6.0,71,0.00,,---,0.00,VWS V14.01,2013-01-31 09:51:00,
2013-01-31 04:52:00,27.7,19.9,29.88,WSW,239,3.0,6.0,72,0.00,,---,0.00,VWS V14.01,2013-01-31 09:52:00,
2013-01-31 04:53:00,27.7,19.9,29.88,WNW,288,2.0,3.0,72,0.00,,---,0.00,VWS V14.01,2013-01-31 09:53:00,
2013-01-31 04:54:00,27.8,20.0,29.88,WNW,298,7.0,10.0,72,0.00,,---,0.00,VWS V14.01,2013-01-31 09:54:00,
2013-01-31 04:55:00,27.7,19.9,29.88,West,264,4.0,9.0,72,0.00,,---,0.00,VWS V14.01,2013-01-31 09:55:00,
2013-01-31 04:56:00,27.7,19.9,29.89,WSW,240,2.0,4.0,72,0.00,,---,0.00,VWS V14.01,2013-01-31 09:56:00,
2013-01-31 04:57:00,27.7,19.9,29.89,West,277,5.0,6.0,72,0.00,,---,0.00,VWS V14.01,2013-01-31 09:57:00,
2013-01-31 04:58:00,27.7,19.9,29.89,West,281,2.0,6.0,72,0.00,,---,0.00,VWS V14.01,2013-01-31 09:58:00,
2013-01-31 04:59:00,27.7,19.9,29.88,SSW,192,2.0,9.0,72,0.00,,---,0.00,VWS V14.01,2013-01-31 09:59:00,
2013-01-31 05:00:00,27.7,19.9,29.89,SW,226,3.0,8.0,72,0.00,,---,0.00,VWS V14.01,2013-01-31 10:00:00,
2013-01-31 05:01:00,27.7,19.9,29.88,WSW,249,7.0,7.0,72,0.00,,---,0.00,VWS V14.01,2013-01-31 10:01:00,
2013-01-31 05:02:00,27.7,19.9,29.89,NW,306,4.0,5.0,72,0.00,,---,0.00,VWS V14.01,2013-01-31 10:02:00,
2013-01-31 05:03:00,27.7,19.9,29.89,WNW,294,5.0,8.0,72,0.00,,---,0.00,VWS V14.01,2013-01-31 10:03:00,
2013-01-31 05:04:00,27.7,19.9,29.89,WSW,257,2.0,6.0,72,0.00,,---,0.00,VWS V14.01,2013-01-31 10:04:00,
2013-01-31 05:05:00,27.7,19.9,29.89,NW,316,1.0,4.0,72,0.00,,---,0.00,VWS V14.01,2013-01-31 10:05:00,
2013-01-31 05:06:00,27.7,19.9,29.89,WSW,249,4.0,7.0,72,0.00,,---,0.00,VWS V14.01,2013-01-31 10:06:00,
2013-01-31 05:07:00,27.7,19.9,29.89,West,268,3.0,4.0,72,0.00,,---,0.00,VWS V14.01,2013-01-31 10:07:00,
2013-01-31 05:08:00,27.7,19.9,29.89,West,281,5.0,5.0,72,0.00,,---,0.00,VWS V14.01,2013-01-31 10:08:00,
2013-01-31 05:09:00,27.7,19.9,29.89,West,268,3.0,5.0,72,0.00,,---,0.00,VWS V14.01,2013-01-31 10:09:00,
2013-01-31 05:10:00,27.7,20.2,29.89,WNW,295,7.0,7.0,73,0.00,,---,0.00,VWS V14.01,2013-01-31 10:10:00,
2013-01-31 05:11:00,27.7,20.2,29.89,West,275,6.0,10.0,73,0.00,,---,0.00,VWS V14.01,2013-01-31 10:11:00,
2013-01-31 05:12:00,27.7,20.2,29.89,NNE,26,5.0,8.0,73,0.00,,---,0.00,VWS V14.01,2013-01-31 10:12:00,
2013-01-31 05:13:00,27.7,19.9,29.89,SW,233,2.0,8.0,72,0.00,,---,0.00,VWS V14.01,2013-01-31 10:13:00,
2013-01-31 05:14:00,27.7,20.2,29.89,WSW,240,0.0,9.0,73,0.00,,---,0.00,VWS V14.01,2013-01-31 10:14:00,
2013-01-31 05:15:00,27.7,20.2,29.90,WSW,254,1.0,1.0,73,0.00,,---,0.00,VWS V14.01,2013-01-31 10:15:00,
2013-01-31 05:16:00,27.8,20.3,29.90,West,260,5.0,8.0,73,0.00,,---,0.00,VWS V14.01,2013-01-31 10:16:00,
2013-01-31 05:17:00,27.8,20.3,29.90,WNW,290,6.0,7.0,73,0.00,,---,0.00,VWS V14.01,2013-01-31 10:17:00,
2013-01-31 05:18:00,27.7,20.2,29.90,SSW,206,0.0,7.0,73,0.00,,---,0.00,VWS V14.01,2013-01-31 10:18:00,
2013-01-31 05:19:00,27.8,20.6,29.90,WNW,285,8.0,8.0,74,0.00,,---,0.00,VWS V14.01,2013-01-31 10:19:00,
2013-01-31 05:20:00,27.8,20.6,29.90,West,278,8.0,9.0,74,0.00,,---,0.00,VWS V14.01,2013-01-31 10:20:00,
2013-01-31 05:21:00,27.8,20.6,29.90,WNW,284,8.0,9.0,74,0.00,,---,0.00,VWS V14.01,2013-01-31 10:21:00,
2013-01-31 05:22:00,27.7,20.2,29.90,WNW,287,4.0,5.0,73,0.00,,---,0.00,VWS V14.01,2013-01-31 10:22:00,
2013-01-31 05:23:00,27.7,20.5,29.90,NW,307,3.0,7.0,74,0.00,,---,0.00,VWS V14.01,2013-01-31 10:23:00,
2013-01-31 05:24:00,27.7,20.5,29.90,WNW,294,2.0,5.0,74,0.00,,---,0.00,VWS V14.01,2013-01-31 10:24:00,
2013-01-31 05:25:00,27.7,20.5,29.90,NW,308,3.0,5.0,74,0.00,,---,0.00,VWS V14.01,2013-01-31 10:25:00,
2013-01-31 05:26:00,27.7,20.5,29.90,West,278,9.0,9.0,74,0.00,,---,0.00,VWS V14.01,2013-01-31 10:26:00,
2013-01-31 05:27:00,27.7,20.5,29.90,West,271,5.0,11.0,74,0.00,,---,0.00,VWS V14.01,2013-01-31 10:27:00,
2013-01-31 05:28:00,27.7,20.5,29.90,WNW,283,10.0,11.0,74,0.00,,---,0.00,VWS V14.01,2013-01-31 10:28:00,
2013-01-31 05:29:00,27.7,20.8,29.90,WNW,287,10.0,13.0,75,0.00,,---,0.00,VWS V14.01,2013-01-31 10:29:00,
2013-01-31 05:30:00,27.7,20.8,29.90,West,263,6.0,13.0,75,0.00,,---,0.00,VWS V14.01,2013-01-31 10:30:00,
2013-01-31 05:31:00,27.6,20.7,29.90,West,261,5.0,9.0,75,0.00,,---,0.00,VWS V14.01,2013-01-31 10:31:00,
2013-01-31 05:32:00,27.5,20.9,29.90,West,281,7.0,7.0,76,0.00,,---,0.00,VWS V14.01,2013-01-31 10:32:00,
2013-01-31 05:33:00,27.5,20.9,29.90,NW,321,4.0,8.0,76,0.00,,---,0.00,VWS V14.01,2013-01-31 10:33:00,
2013-01-31 05:34:00,27.5,20.9,29.90,WNW,294,5.0,11.0,76,0.00,,---,0.00,VWS V14.01,2013-01-31 10:34:00,
2013-01-31 05:35:00,27.4,21.1,29.90,West,281,3.0,8.0,77,0.00,,---,0.00,VWS V14.01,2013-01-31 10:35:00,
2013-01-31 05:36:00,27.4,21.1,29.90,WNW,282,8.0,8.0,77,0.00,,---,0.00,VWS V14.01,2013-01-31 10:36:00,
2013-01-31 05:37:00,27.4,21.1,29.90,West,268,8.0,8.0,77,0.00,,---,0.00,VWS V14.01,2013-01-31 10:37:00,
2013-01-31 05:38:00,27.4,21.1,29.90,West,261,3.0,11.0,77,0.00,,---,0.00,VWS V14.01,2013-01-31 10:38:00,
2013-01-31 05:39:00,27.3,21.4,29.90,West,266,6.0,8.0,78,0.00,,---,0.00,VWS V14.01,2013-01-31 10:39:00,
2013-01-31 05:40:00,27.3,21.4,29.90,WSW,256,10.0,10.0,78,0.00,,---,0.00,VWS V14.01,2013-01-31 10:40:00,
2013-01-31 05:41:00,27.2,21.3,29.90,NW,304,4.0,9.0,78,0.00,,---,0.00,VWS V14.01,2013-01-31 10:41:00,
2013-01-31 05:42:00,27.2,21.3,29.90,West,273,3.0,4.0,78,0.00,,---,0.00,VWS V14.01,2013-01-31 10:42:00,
2013-01-31 05:43:00,27.2,21.3,29.90,WNW,297,3.0,8.0,78,0.00,,---,0.00,VWS V14.01,2013-01-31 10:43:00,
2013-01-31 05:44:00,27.2,21.3,29.90,WNW,298,5.0,9.0,78,0.00,,---,0.00,VWS V14.01,2013-01-31 10:44:00,
2013-01-31 05:45:00,27.1,21.2,29.90,West,278,4.0,9.0,78,0.00,,---,0.00,VWS V14.01,2013-01-31 10:45:00,
2013-01-31 05:46:00,27.1,21.2,29.90,WNW,299,4.0,6.0,78,0.00,,---,0.00,VWS V14.01,2013-01-31 10:46:00,
2013-01-31 05:47:00,27.1,21.2,29.91,NW,308,5.0,5.0,78,0.00,,---,0.00,VWS V14.01,2013-01-31 10:47:00,
2013-01-31 05:48:00,27.1,21.2,29.91,NW,309,3.0,5.0,78,0.00,,---,0.00,VWS V14.01,2013-01-31 10:48:00,
2013-01-31 05:49:00,27.1,21.2,29.91,West,273,4.0,5.0,78,0.00,,---,0.00,VWS V14.01,2013-01-31 10:49:00,
2013-01-31 05:50:00,27.1,21.2,29.91,West,281,4.0,5.0,78,0.00,,---,0.00,VWS V14.01,2013-01-31 10:50:00,
2013-01-31 05:51:00,27.1,21.2,29.91,WNW,292,4.0,8.0,78,0.00,,---,0.00,VWS V14.01,2013-01-31 10:51:00,
2013-01-31 05:52:00,27.1,21.2,29.91,West,281,4.0,4.0,78,0.00,,---,0.00,VWS V14.01,2013-01-31 10:52:00,
2013-01-31 05:53:00,27.1,21.5,29.91,NW,308,5.0,11.0,79,0.00,,---,0.00,VWS V14.01,2013-01-31 10:53:00,
2013-01-31 05:54:00,27.1,21.2,29.91,West,278,6.0,7.0,78,0.00,,---,0.00,VWS V14.01,2013-01-31 10:54:00,
2013-01-31 05:55:00,27.1,21.5,29.91,WNW,287,4.0,9.0,79,0.00,,---,0.00,VWS V14.01,2013-01-31 10:55:00,
2013-01-31 05:56:00,27.1,21.2,29.91,WNW,283,3.0,9.0,78,0.00,,---,0.00,VWS V14.01,2013-01-31 10:56:00,
2013-01-31 05:57:00,27.0,21.1,29.91,WNW,295,4.0,6.0,78,0.00,,---,0.00,VWS V14.01,2013-01-31 10:57:00,
2013-01-31 05:58:00,27.0,21.1,29.91,SW,221,6.0,6.0,78,0.00,,---,0.00,VWS V14.01,2013-01-31 10:58:00,
2013-01-31 05:59:00,27.0,21.1,29.90,West,278,4.0,6.0,78,0.00,,---,0.00,VWS V14.01,2013-01-31 10:59:00,
2013-01-31 06:00:00,27.0,21.1,29.91,WNW,290,5.0,6.0,78,0.00,,---,0.00,VWS V14.01,2013-01-31 11:00:00,
2013-01-31 06:01:00,26.9,21.3,29.91,WSW,249,3.0,6.0,79,0.00,,---,0.00,VWS V14.01,2013-01-31 11:01:00,
2013-01-31 06:02:00,26.9,21.3,29.91,West,279,4.0,5.0,79,0.00,,---,0.00,VWS V14.01,2013-01-31 11:02:00,
2013-01-31 06:03:00,26.9,21.3,29.91,WNW,294,7.0,7.0,79,0.00,,---,0.00,VWS V14.01,2013-01-31 11:03:00,
2013-01-31 06:04:00,26.9,21.0,29.91,WSW,239,3.0,7.0,78,0.00,,---,0.00,VWS V14.01,2013-01-31 11:04:00,
2013-01-31 06:05:00,26.9,21.3,29.91,SW,230,4.0,4.0,79,0.00,,---,0.00,VWS V14.01,2013-01-31 11:05:00,
2013-01-31 06:06:00,26.9,21.3,29.91,SW,216,2.0,5.0,79,0.00,,---,0.00,VWS V14.01,2013-01-31 11:06:00,
2013-01-31 06:07:00,26.9,21.3,29.91,WNW,291,3.0,3.0,79,0.00,,---,0.00,VWS V14.01,2013-01-31 11:07:00,
2013-01-31 06:08:00,26.9,21.3,29.91,West,275,4.0,9.0,79,0.00,,---,0.00,VWS V14.01,2013-01-31 11:08:00,
2013-01-31 06:09:00,26.9,21.3,29.91,NW,305,3.0,8.0,79,0.00,,---,0.00,VWS V14.01,2013-01-31 11:09:00,
2013-01-31 06:10:00,26.9,21.3,29.91,WSW,247,4.0,7.0,79,0.00,,---,0.00,VWS V14.01,2013-01-31 11:10:00,
2013-01-31 06:11:00,26.9,21.0,29.91,NW,325,4.0,7.0,78,0.00,,---,0.00,VWS V14.01,2013-01-31 11:11:00,
2013-01-31 06:12:00,26.9,21.3,29.91,West,275,5.0,6.0,79,0.00,,---,0.00,VWS V14.01,2013-01-31 11:12:00,
2013-01-31 06:13:00,26.9,21.3,29.91,West,281,4.0,8.0,79,0.00,,---,0.00,VWS V14.01,2013-01-31 11:13:00,
2013-01-31 06:14:00,26.9,21.3,29.91,NW,311,4.0,9.0,79,0.00,,---,0.00,VWS V14.01,2013-01-31 11:14:00,
2013-01-31 06:15:00,26.9,21.3,29.91,WNW,302,4.0,7.0,79,0.00,,---,0.00,VWS V14.01,2013-01-31 11:15:00,
2013-01-31 06:16:00,26.9,21.3,29.92,SW,225,6.0,7.0,79,0.00,,---,0.00,VWS V14.01,2013-01-31 11:16:00,
2013-01-31 06:17:00,26.9,21.0,29.92,West,278,7.0,7.0,78,0.00,,---,0.00,VWS V14.01,2013-01-31 11:17:00,
2013-01-31 06:18:00,26.9,21.3,29.92,West,273,6.0,9.0,79,0.00,,---,0.00,VWS V14.01,2013-01-31 11:18:00,
2013-01-31 06:19:00,26.9,21.0,29.92,West,270,7.0,13.0,78,0.00,,---,0.00,VWS V14.01,2013-01-31 11:19:00,
2013-01-31 06:20:00,26.9,21.0,29.92,West,259,2.0,8.0,78,0.00,,---,0.00,VWS V14.01,2013-01-31 11:20:00,
2013-01-31 06:21:00,26.9,21.3,29.92,WNW,285,1.0,4.0,79,0.00,,---,0.00,VWS V14.01,2013-01-31 11:21:00,
2013-01-31 06:22:00,27.0,21.4,29.92,West,281,2.0,3.0,79,0.00,,---,0.00,VWS V14.01,2013-01-31 11:22:00,
2013-01-31 06:23:00,27.0,21.7,29.92,West,262,2.0,3.0,80,0.00,,---,0.00,VWS V14.01,2013-01-31 11:23:00,
2013-01-31 06:24:00,27.0,21.7,29.92,West,266,2.0,5.0,80,0.00,,---,0.00,VWS V14.01,2013-01-31 11:24:00,
2013-01-31 06:25:00,27.0,21.7,29.92,West,281,2.0,5.0,80,0.00,,---,0.00,VWS V14.01,2013-01-31 11:25:00,
2013-01-31 06:26:00,27.0,21.7,29.92,WSW,252,5.0,6.0,80,0.00,,---,0.00,VWS V14.01,2013-01-31 11:26:00,
2013-01-31 06:27:00,26.9,21.6,29.92,West,278,2.0,2.0,80,0.00,,---,0.00,VWS V14.01,2013-01-31 11:27:00,
2013-01-31 06:28:00,26.9,21.6,29.92,West,273,3.0,6.0,80,0.00,,---,0.00,VWS V14.01,2013-01-31 11:28:00,
2013-01-31 06:29:00,26.9,21.6,29.92,WNW,291,3.0,5.0,80,0.00,,---,0.00,VWS V14.01,2013-01-31 11:29:00,
2013-01-31 06:30:00,26.9,21.6,29.92,WNW,292,1.0,5.0,80,0.00,,---,0.00,VWS V14.01,2013-01-31 11:30:00,
2013-01-31 06:31:00,26.9,21.6,29.92,West,260,3.0,5.0,80,0.00,,---,0.00,VWS V14.01,2013-01-31 11:31:00,
2013-01-31 06:32:00,26.9,21.6,29.92,NW,315,3.0,3.0,80,0.00,,---,0.00,VWS V14.01,2013-01-31 11:32:00,
2013-01-31 06:33:00,26.9,21.6,29.92,West,273,3.0,4.0,80,0.00,,---,0.00,VWS V14.01,2013-01-31 11:33:00,
2013-01-31 06:34:00,26.9,21.9,29.93,West,261,3.0,4.0,81,0.00,,---,0.00,VWS V14.01,2013-01-31 11:34:00,
2013-01-31 06:35:00,26.9,21.9,29.93,WNW,290,4.0,7.0,81,0.00,,---,0.00,VWS V14.01,2013-01-31 11:35:00,
2013-01-31 06:36:00,26.9,21.9,29.93,WNW,298,1.0,4.0,81,0.00,,---,0.00,VWS V14.01,2013-01-31 11:36:00,
2013-01-31 06:37:00,26.9,21.9,29.93,WNW,298,4.0,4.0,81,0.00,,---,0.00,VWS V14.01,2013-01-31 11:37:00,
2013-01-31 06:38:00,26.9,21.9,29.93,NW,305,5.0,6.0,81,0.00,,---,0.00,VWS V14.01,2013-01-31 11:38:00,
2013-01-31 06:39:00,26.9,21.9,29.93,WNW,285,2.0,6.0,81,0.00,,---,0.00,VWS V14.01,2013-01-31 11:39:00,
2013-01-31 06:40:00,26.9,21.9,29.93,WNW,294,4.0,6.0,81,0.00,,---,0.00,VWS V14.01,2013-01-31 11:40:00,
2013-01-31 06:41:00,26.8,22.0,29.93,West,260,4.0,4.0,82,0.00,,---,0.00,VWS V14.01,2013-01-31 11:41:00,
2013-01-31 06:42:00,26.8,22.0,29.93,WSW,257,4.0,4.0,82,0.00,,---,0.00,VWS V14.01,2013-01-31 11:42:00,
2013-01-31 06:44:00,26.7,22.0,29.93,WNW,287,1.0,6.0,82,0.00,,---,0.00,VWS V14.01,2013-01-31 11:44:00,
2013-01-31 06:45:00,26.7,22.0,29.93,NW,308,3.0,4.0,82,0.00,,---,0.00,VWS V14.01,2013-01-31 11:45:00,
2013-01-31 06:46:00,26.7,22.0,29.93,WNW,300,4.0,7.0,82,0.00,,---,0.00,VWS V14.01,2013-01-31 11:46:00,
2013-01-31 06:47:00,26.7,22.0,29.93,West,263,2.0,2.0,82,0.00,,---,0.00,VWS V14.01,2013-01-31 11:47:00,
2013-01-31 06:48:00,26.7,22.0,29.93,NW,317,2.0,5.0,82,0.00,,---,0.00,VWS V14.01,2013-01-31 11:48:00,
2013-01-31 06:49:00,26.6,22.1,29.93,NW,306,2.0,3.0,83,0.00,,---,0.00,VWS V14.01,2013-01-31 11:49:00,
2013-01-31 06:50:00,26.6,22.1,29.93,WNW,298,3.0,6.0,83,0.00,,---,0.00,VWS V14.01,2013-01-31 11:50:00,
2013-01-31 06:51:00,26.6,22.1,29.93,WNW,287,2.0,5.0,83,0.00,,---,0.00,VWS V14.01,2013-01-31 11:51:00,
2013-01-31 06:52:00,26.6,22.1,29.93,West,259,6.0,7.0,83,0.00,,---,0.00,VWS V14.01,2013-01-31 11:52:00,
2013-01-31 06:57:00,26.5,22.0,29.93,WSW,243,2.0,2.0,83,0.00,,---,0.00,VWS V14.01,2013-01-31 11:57:00,
2013-01-31 07:02:00,26.5,22.0,29.94,WNW,298,1.0,2.0,83,0.00,,---,0.00,VWS V14.01,2013-01-31 12:02:00,
2013-01-31 07:07:00,26.5,22.3,29.94,NW,304,1.0,2.0,84,0.00,,---,0.00,VWS V14.01,2013-01-31 12:07:00,
2013-01-31 07:12:00,26.6,22.4,29.94,West,261,2.0,5.0,84,0.00,,---,0.00,VWS V14.01,2013-01-31 12:12:00,
2013-01-31 07:17:00,26.6,22.4,29.95,WNW,287,4.0,7.0,84,0.00,,---,0.00,VWS V14.01,2013-01-31 12:17:00,
2013-01-31 07:22:00,26.6,22.4,29.95,West,281,2.0,4.0,84,0.00,,---,0.00,VWS V14.01,2013-01-31 12:22:00,
2013-01-31 07:27:00,26.6,22.4,29.95,WNW,298,2.0,3.0,84,0.00,,---,0.00,VWS V14.01,2013-01-31 12:27:00,
2013-01-31 07:32:00,26.7,22.5,29.95,West,280,4.0,5.0,84,0.00,,---,0.00,VWS V14.01,2013-01-31 12:32:00,
2013-01-31 07:37:00,26.6,22.1,29.96,WNW,302,2.0,6.0,83,0.00,,---,0.00,VWS V14.01,2013-01-31 12:37:00,
2013-01-31 07:42:00,26.6,22.4,29.96,WNW,283,4.0,8.0,84,0.00,,---,0.00,VWS V14.01,2013-01-31 12:42:00,
2013-01-31 07:47:00,26.4,22.5,29.96,West,280,6.0,7.0,85,0.00,,---,0.00,VWS V14.01,2013-01-31 12:47:00,
2013-01-31 07:52:00,26.2,22.6,29.96,NW,325,3.0,4.0,86,0.00,,---,0.00,VWS V14.01,2013-01-31 12:52:00,
2013-01-31 07:57:00,26.0,22.1,29.97,NW,313,2.0,4.0,85,0.00,,---,0.00,VWS V14.01,2013-01-31 12:57:00,
2013-01-31 08:02:00,25.9,21.7,29.97,West,268,5.0,9.0,84,0.00,,---,0.00,VWS V14.01,2013-01-31 13:02:00,
2013-01-31 08:07:00,25.9,21.7,29.97,West,278,4.0,5.0,84,0.00,,---,0.00,VWS V14.01,2013-01-31 13:07:00,
2013-01-31 08:12:00,25.9,21.5,29.97,WNW,291,2.0,9.0,83,0.00,,---,0.00,VWS V14.01,2013-01-31 13:12:00,
2013-01-31 08:17:00,25.9,21.5,29.98,West,280,2.0,4.0,83,0.00,,---,0.00,VWS V14.01,2013-01-31 13:17:00,
2013-01-31 08:22:00,25.9,21.7,29.98,WNW,292,2.0,5.0,84,0.00,,---,0.00,VWS V14.01,2013-01-31 13:22:00,
2013-01-31 08:27:00,25.8,21.9,29.99,SSW,201,2.0,3.0,85,0.00,,---,0.00,VWS V14.01,2013-01-31 13:27:00,
2013-01-31 08:32:00,25.8,21.9,29.99,SSW,204,3.0,10.0,85,0.00,,---,0.00,VWS V14.01,2013-01-31 13:32:00,
2013-01-31 08:37:00,25.7,21.3,29.99,WNW,295,3.0,4.0,83,0.00,,---,0.00,VWS V14.01,2013-01-31 13:37:00,
2013-01-31 08:42:00,25.7,21.3,29.99,WNW,298,1.0,6.0,83,0.00,,---,0.00,VWS V14.01,2013-01-31 13:42:00,
2013-01-31 08:47:00,25.6,20.9,30.00,SW,225,2.0,3.0,82,0.00,,---,0.00,VWS V14.01,2013-01-31 13:47:00,
2013-01-31 08:52:00,25.4,21.2,30.00,WSW,240,5.0,6.0,84,0.00,,---,0.00,VWS V14.01,2013-01-31 13:52:00,
2013-01-31 08:57:00,25.3,21.4,30.01,West,260,3.0,3.0,85,0.00,,---,0.00,VWS V14.01,2013-01-31 13:57:00,
2013-01-31 09:02:00,25.2,21.6,30.01,WSW,253,1.0,4.0,86,0.00,,---,0.00,VWS V14.01,2013-01-31 14:02:00,
2013-01-31 09:07:00,25.3,22.0,30.01,West,267,3.0,6.0,87,0.00,,---,0.00,VWS V14.01,2013-01-31 14:07:00,
2013-01-31 09:12:00,25.4,22.1,30.01,WSW,250,3.0,3.0,87,0.00,,---,0.00,VWS V14.01,2013-01-31 14:12:00,
2013-01-31 09:17:00,25.5,22.2,30.01,WSW,257,2.0,4.0,87,0.00,,---,0.00,VWS V14.01,2013-01-31 14:17:00,
2013-01-31 09:22:00,25.7,22.4,30.02,SW,229,2.0,3.0,87,0.00,,---,0.00,VWS V14.01,2013-01-31 14:22:00,
2013-01-31 09:27:00,25.7,22.4,30.01,West,267,2.0,6.0,87,0.00,,---,0.00,VWS V14.01,2013-01-31 14:27:00,
2013-01-31 09:32:00,25.8,22.2,30.02,WSW,256,4.0,7.0,86,0.00,,---,0.00,VWS V14.01,2013-01-31 14:32:00,
2013-01-31 09:37:00,25.9,22.3,30.02,NW,309,1.0,4.0,86,0.00,,---,0.00,VWS V14.01,2013-01-31 14:37:00,
2013-01-31 09:42:00,26.0,22.1,30.02,WNW,284,3.0,5.0,85,0.00,,---,0.00,VWS V14.01,2013-01-31 14:42:00,
2013-01-31 09:47:00,26.0,22.1,30.02,West,271,7.0,7.0,85,0.00,,---,0.00,VWS V14.01,2013-01-31 14:47:00,
2013-01-31 09:52:00,26.1,22.2,30.02,West,265,1.0,3.0,85,0.00,,---,0.00,VWS V14.01,2013-01-31 14:52:00,
2013-01-31 09:57:00,26.1,21.9,30.02,WNW,294,3.0,5.0,84,0.00,,---,0.00,VWS V14.01,2013-01-31 14:57:00,
2013-01-31 10:02:00,26.1,21.9,30.03,West,269,1.0,2.0,84,0.00,,---,0.00,VWS V14.01,2013-01-31 15:02:00,
2013-01-31 10:07:00,26.1,22.2,30.03,WSW,256,3.0,5.0,85,0.00,,---,0.00,VWS V14.01,2013-01-31 15:07:00,
2013-01-31 10:12:00,26.2,22.3,30.03,West,269,1.0,7.0,85,0.00,,---,0.00,VWS V14.01,2013-01-31 15:12:00,
2013-01-31 10:17:00,26.2,22.3,30.03,West,270,4.0,4.0,85,0.00,,---,0.00,VWS V14.01,2013-01-31 15:17:00,
2013-01-31 10:22:00,26.2,22.6,30.03,SW,221,3.0,5.0,86,0.00,,---,0.00,VWS V14.01,2013-01-31 15:22:00,
2013-01-31 10:27:00,26.3,23.0,30.03,West,273,1.0,2.0,87,0.00,,---,0.00,VWS V14.01,2013-01-31 15:27:00,
2013-01-31 10:32:00,26.4,23.1,30.03,WSW,252,1.0,3.0,87,0.00,,---,0.00,VWS V14.01,2013-01-31 15:32:00,
2013-01-31 10:37:00,26.5,23.2,30.03,West,281,2.0,3.0,87,0.00,,---,0.00,VWS V14.01,2013-01-31 15:37:00,
2013-01-31 10:42:00,26.5,23.2,30.03,WSW,245,3.0,3.0,87,0.00,,---,0.00,VWS V14.01,2013-01-31 15:42:00,
2013-01-31 10:47:00,26.7,23.4,30.04,SW,222,3.0,4.0,87,0.00,,---,0.00,VWS V14.01,2013-01-31 15:47:00,
2013-01-31 10:52:00,26.8,23.5,30.04,WNW,291,1.0,2.0,87,0.00,,---,0.00,VWS V14.01,2013-01-31 15:52:00,
2013-01-31 10:57:00,26.9,23.6,30.04,SE,146,1.0,7.0,87,0.00,,---,0.00,VWS V14.01,2013-01-31 15:57:00,
2013-01-31 11:02:00,27.1,23.5,30.04,SE,146,1.0,6.0,86,0.00,,---,0.00,VWS V14.01,2013-01-31 16:02:00,
2013-01-31 11:07:00,27.2,23.6,30.04,SE,141,1.0,4.0,86,0.00,,---,0.00,VWS V14.01,2013-01-31 16:07:00,
2013-01-31 11:12:00,27.7,23.8,30.05,South,171,3.0,5.0,85,0.00,,---,0.00,VWS V14.01,2013-01-31 16:12:00,
2013-01-31 11:17:00,28.5,24.6,30.05,WNW,294,2.0,3.0,85,0.00,,---,0.00,VWS V14.01,2013-01-31 16:17:00,
2013-01-31 11:22:00,29.3,24.8,30.04,WSW,243,1.0,4.0,83,0.00,,---,0.00,VWS V14.01,2013-01-31 16:22:00,
2013-01-31 11:27:00,29.6,24.5,30.04,NW,308,4.0,7.0,81,0.00,,---,0.00,VWS V14.01,2013-01-31 16:27:00,
2013-01-31 11:32:00,29.4,23.7,30.04,WNW,300,6.0,6.0,79,0.00,,---,0.00,VWS V14.01,2013-01-31 16:32:00,
2013-01-31 11:37:00,29.2,22.0,30.04,West,274,4.0,9.0,74,0.00,,---,0.00,VWS V14.01,2013-01-31 16:37:00,
2013-01-31 11:42:00,29.2,22.3,30.04,WSW,246,2.0,4.0,75,0.00,,---,0.00,VWS V14.01,2013-01-31 16:42:00,
2013-01-31 11:47:00,29.4,20.8,30.04,SSW,209,5.0,7.0,70,0.00,,---,0.00,VWS V14.01,2013-01-31 16:47:00,
2013-01-31 11:52:00,29.6,20.4,30.04,WSW,239,9.0,11.0,68,0.00,,---,0.00,VWS V14.01,2013-01-31 16:52:00,
2013-01-31 11:57:00,29.9,21.3,30.04,WSW,253,6.0,9.0,70,0.00,,---,0.00,VWS V14.01,2013-01-31 16:57:00,
2013-01-31 12:02:00,29.8,20.9,30.05,WNW,292,4.0,11.0,69,0.00,,---,0.00,VWS V14.01,2013-01-31 17:02:00,
2013-01-31 12:07:00,29.8,20.9,30.05,NNE,24,2.0,4.0,69,0.00,,---,0.00,VWS V14.01,2013-01-31 17:07:00,
2013-01-31 12:12:00,29.9,21.0,30.05,SSW,198,3.0,3.0,69,0.00,,---,0.00,VWS V14.01,2013-01-31 17:12:00,
2013-01-31 12:17:00,30.0,21.4,30.05,SSW,200,1.0,1.0,70,0.00,,---,0.00,VWS V14.01,2013-01-31 17:17:00,
2013-01-31 12:22:00,30.2,21.3,30.05,West,273,2.0,5.0,69,0.00,,---,0.00,VWS V14.01,2013-01-31 17:22:00,
2013-01-31 12:27:00,30.3,21.4,30.05,WSW,242,5.0,7.0,69,0.00,,---,0.00,VWS V14.01,2013-01-31 17:27:00,
2013-01-31 12:32:00,30.3,21.7,30.05,West,281,8.0,8.0,70,0.00,,---,0.00,VWS V14.01,2013-01-31 17:32:00,
2013-01-31 12:37:00,30.3,21.0,30.05,SW,231,3.0,4.0,68,0.00,,---,0.00,VWS V14.01,2013-01-31 17:37:00,
2013-01-31 12:42:00,30.5,21.9,30.04,SSW,204,3.0,4.0,70,0.00,,---,0.00,VWS V14.01,2013-01-31 17:42:00,
2013-01-31 12:47:00,30.9,22.3,30.04,West,270,4.0,6.0,70,0.00,,---,0.00,VWS V14.01,2013-01-31 17:47:00,
2013-01-31 12:52:00,31.0,21.7,30.04,West,281,4.0,5.0,68,0.00,,---,0.00,VWS V14.01,2013-01-31 17:52:00,
2013-01-31 12:57:00,31.3,22.0,30.03,NW,318,1.0,2.0,68,0.00,,---,0.00,VWS V14.01,2013-01-31 17:57:00,
2013-01-31 13:02:00,31.8,22.5,30.03,WSW,245,4.0,4.0,68,0.00,,---,0.00,VWS V14.01,2013-01-31 18:02:00,
2013-01-31 13:07:00,32.1,22.4,30.02,West,275,11.0,11.0,67,0.00,,---,0.00,VWS V14.01,2013-01-31 18:07:00,
2013-01-31 13:12:00,32.2,22.1,30.01,NW,313,1.0,2.0,66,0.00,,---,0.00,VWS V14.01,2013-01-31 18:12:00,
2013-01-31 13:17:00,32.3,22.2,30.02,WNW,294,5.0,6.0,66,0.00,,---,0.00,VWS V14.01,2013-01-31 18:17:00,
2013-01-31 13:22:00,32.1,21.7,30.02,WNW,284,3.0,5.0,65,0.00,,---,0.00,VWS V14.01,2013-01-31 18:22:00,
2013-01-31 13:27:00,32.2,22.1,30.02,NW,313,10.0,10.0,66,0.00,,---,0.00,VWS V14.01,2013-01-31 18:27:00,
2013-01-31 13:32:00,32.1,22.0,30.01,SW,218,4.0,7.0,66,0.00,,---,0.00,VWS V14.01,2013-01-31 18:32:00,
2013-01-31 13:37:00,32.3,22.6,30.02,SW,230,4.0,4.0,67,0.00,,---,0.00,VWS V14.01,2013-01-31 18:37:00,
2013-01-31 13:42:00,32.2,21.8,30.02,WNW,294,4.0,4.0,65,0.00,,---,0.00,VWS V14.01,2013-01-31 18:42:00,
2013-01-31 13:47:00,32.1,21.7,30.01,West,273,3.0,4.0,65,0.00,,---,0.00,VWS V14.01,2013-01-31 18:47:00,
2013-01-31 13:52:00,32.3,22.2,30.01,NW,308,11.0,13.0,66,0.00,,---,0.00,VWS V14.01,2013-01-31 18:52:00,
2013-01-31 13:57:00,32.6,22.5,30.01,West,277,8.0,8.0,66,0.00,,---,0.00,VWS V14.01,2013-01-31 18:57:00,
2013-01-31 14:02:00,32.6,22.1,30.01,WNW,297,3.0,5.0,65,0.00,,---,0.00,VWS V14.01,2013-01-31 19:02:00,
2013-01-31 14:07:00,32.9,22.4,30.01,East,89,1.0,6.0,65,0.00,,---,0.00,VWS V14.01,2013-01-31 19:07:00,
2013-01-31 14:12:00,33.3,22.5,30.01,West,261,3.0,4.0,64,0.00,,---,0.00,VWS V14.01,2013-01-31 19:12:00,
2013-01-31 14:17:00,33.2,22.7,30.01,NW,311,4.0,5.0,65,0.00,,---,0.00,VWS V14.01,2013-01-31 19:17:00,
2013-01-31 14:22:00,33.8,23.7,30.01,WNW,294,6.0,6.0,66,0.00,,---,0.00,VWS V14.01,2013-01-31 19:22:00,
2013-01-31 14:27:00,34.1,22.8,30.01,West,278,3.0,7.0,63,0.00,,---,0.00,VWS V14.01,2013-01-31 19:27:00,
2013-01-31 14:32:00,33.9,23.0,30.02,NW,313,5.0,5.0,64,0.00,,---,0.00,VWS V14.01,2013-01-31 19:32:00,
2013-01-31 14:37:00,34.2,22.9,30.01,WNW,290,3.0,8.0,63,0.00,,---,0.00,VWS V14.01,2013-01-31 19:37:00,
2013-01-31 14:42:00,33.8,21.8,30.01,West,273,8.0,10.0,61,0.00,,---,0.00,VWS V14.01,2013-01-31 19:42:00,
2013-01-31 14:47:00,33.5,21.9,30.00,WNW,287,5.0,10.0,62,0.00,,---,0.00,VWS V14.01,2013-01-31 19:47:00,
2013-01-31 14:52:00,33.7,22.5,30.00,WNW,300,4.0,7.0,63,0.00,,---,0.00,VWS V14.01,2013-01-31 19:52:00,
2013-01-31 14:57:00,33.6,22.4,30.00,South,176,6.0,8.0,63,0.00,,---,0.00,VWS V14.01,2013-01-31 19:57:00,
2013-01-31 15:02:00,33.5,22.3,30.00,SW,231,1.0,6.0,63,0.00,,---,0.00,VWS V14.01,2013-01-31 20:02:00,
2013-01-31 15:07:00,33.9,22.6,30.00,NNW,332,4.0,8.0,63,0.00,,---,0.00,VWS V14.01,2013-01-31 20:07:00,
2013-01-31 15:12:00,33.9,22.3,30.00,WSW,244,2.0,6.0,62,0.00,,---,0.00,VWS V14.01,2013-01-31 20:12:00,
2013-01-31 15:17:00,33.9,22.6,30.00,West,270,3.0,7.0,63,0.00,,---,0.00,VWS V14.01,2013-01-31 20:17:00,
2013-01-31 15:22:00,33.8,22.5,30.00,NW,323,3.0,6.0,63,0.00,,---,0.00,VWS V14.01,2013-01-31 20:22:00,
2013-01-31 15:27:00,34.1,22.5,30.00,WNW,292,4.0,9.0,62,0.00,,---,0.00,VWS V14.01,2013-01-31 20:27:00,
2013-01-31 15:32:00,34.5,22.8,30.00,West,275,1.0,3.0,62,0.00,,---,0.00,VWS V14.01,2013-01-31 20:32:00,
2013-01-31 15:37:00,34.8,22.7,30.00,West,277,4.0,9.0,61,0.00,,---,0.00,VWS V14.01,2013-01-31 20:37:00,
2013-01-31 15:42:00,34.7,22.6,30.00,WSW,253,6.0,10.0,61,0.00,,---,0.00,VWS V14.01,2013-01-31 20:42:00,
2013-01-31 15:47:00,35.1,23.4,30.00,NW,305,4.0,7.0,62,0.00,,---,0.00,VWS V14.01,2013-01-31 20:47:00,
2013-01-31 15:52:00,35.6,23.1,30.00,WNW,298,3.0,5.0,60,0.00,,---,0.00,VWS V14.01,2013-01-31 20:52:00,
2013-01-31 15:57:00,35.5,22.6,29.99,SSE,167,6.0,14.0,59,0.00,,---,0.00,VWS V14.01,2013-01-31 20:57:00,
2013-01-31 16:02:00,35.3,22.8,30.00,SSW,198,5.0,7.0,60,0.00,,---,0.00,VWS V14.01,2013-01-31 21:02:00,
2013-01-31 16:07:00,35.2,22.3,30.00,WSW,247,5.0,11.0,59,0.00,,---,0.00,VWS V14.01,2013-01-31 21:07:00,
2013-01-31 16:12:00,35.4,22.9,29.99,NW,308,2.0,6.0,60,0.00,,---,0.00,VWS V14.01,2013-01-31 21:12:00,
2013-01-31 16:17:00,35.5,23.0,30.00,West,278,6.0,10.0,60,0.00,,---,0.00,VWS V14.01,2013-01-31 21:17:00,
2013-01-31 16:22:00,35.2,22.3,29.99,NW,307,3.0,8.0,59,0.00,,---,0.00,VWS V14.01,2013-01-31 21:22:00,
2013-01-31 16:27:00,35.1,22.2,30.00,WNW,294,2.0,9.0,59,0.00,,---,0.00,VWS V14.01,2013-01-31 21:27:00,
2013-01-31 16:32:00,35.1,23.0,29.99,NW,307,1.0,2.0,61,0.00,,---,0.00,VWS V14.01,2013-01-31 21:32:00,
2013-01-31 16:37:00,35.1,23.0,29.99,West,271,8.0,9.0,61,0.00,,---,0.00,VWS V14.01,2013-01-31 21:37:00,
2013-01-31 16:42:00,35.1,22.6,29.99,NNW,339,5.0,10.0,60,0.00,,---,0.00,VWS V14.01,2013-01-31 21:42:00,
2013-01-31 16:47:00,35.1,23.0,29.99,WNW,302,4.0,6.0,61,0.00,,---,0.00,VWS V14.01,2013-01-31 21:47:00,
2013-01-31 16:52:00,35.1,23.4,30.00,SW,225,3.0,3.0,62,0.00,,---,0.00,VWS V14.01,2013-01-31 21:52:00,
2013-01-31 16:57:00,35.2,23.5,30.00,WSW,256,2.0,6.0,62,0.00,,---,0.00,VWS V14.01,2013-01-31 21:57:00,
2013-01-31 17:02:00,35.2,23.9,30.00,West,273,3.0,10.0,63,0.00,,---,0.00,VWS V14.01,2013-01-31 22:02:00,
2013-01-31 17:07:00,35.1,23.4,30.00,WNW,288,4.0,12.0,62,0.00,,---,0.00,VWS V14.01,2013-01-31 22:07:00,
2013-01-31 17:12:00,35.0,23.3,30.00,WSW,249,3.0,4.0,62,0.00,,---,0.00,VWS V14.01,2013-01-31 22:12:00,
2013-01-31 17:17:00,35.0,23.3,30.00,WNW,289,4.0,5.0,62,0.00,,---,0.00,VWS V14.01,2013-01-31 22:17:00,
2013-01-31 17:22:00,34.9,23.6,30.00,WSW,257,5.0,5.0,63,0.00,,---,0.00,VWS V14.01,2013-01-31 22:22:00,
2013-01-31 17:27:00,34.8,23.5,30.00,SW,233,3.0,7.0,63,0.00,,---,0.00,VWS V14.01,2013-01-31 22:27:00,
2013-01-31 17:32:00,34.8,23.9,30.00,WNW,294,3.0,7.0,64,0.00,,---,0.00,VWS V14.01,2013-01-31 22:32:00,
2013-01-31 17:37:00,34.7,23.8,30.00,WSW,254,3.0,7.0,64,0.00,,---,0.00,VWS V14.01,2013-01-31 22:37:00,
2013-01-31 17:42:00,34.7,24.1,30.00,ESE,112,2.0,5.0,65,0.00,,---,0.00,VWS V14.01,2013-01-31 22:42:00,
2013-01-31 17:47:00,34.6,24.1,30.00,NNW,328,3.0,5.0,65,0.00,,---,0.00,VWS V14.01,2013-01-31 22:47:00,
2013-01-31 17:52:00,34.5,24.7,30.00,NW,320,2.0,2.0,67,0.00,,---,0.00,VWS V14.01,2013-01-31 22:52:00,
2013-01-31 17:57:00,34.4,24.6,30.00,WSW,246,4.0,5.0,67,0.00,,---,0.00,VWS V14.01,2013-01-31 22:57:00,
2013-01-31 18:02:00,34.3,24.5,30.00,SSW,208,2.0,2.0,67,0.00,,---,0.00,VWS V14.01,2013-01-31 23:02:00,
2013-01-31 18:07:00,34.1,24.3,30.00,NNW,327,4.0,5.0,67,0.00,,---,0.00,VWS V14.01,2013-01-31 23:07:00,
2013-01-31 18:12:00,34.1,24.3,30.00,WSW,237,3.0,4.0,67,0.00,,---,0.00,VWS V14.01,2013-01-31 23:12:00,
2013-01-31 18:17:00,34.1,24.3,30.01,SW,216,6.0,6.0,67,0.00,,---,0.00,VWS V14.01,2013-01-31 23:17:00,
2013-01-31 18:22:00,34.0,24.6,30.00,SW,230,2.0,2.0,68,0.00,,---,0.00,VWS V14.01,2013-01-31 23:22:00,
2013-01-31 18:27:00,33.9,24.5,30.00,WSW,243,0.0,1.0,68,0.00,,---,0.00,VWS V14.01,2013-01-31 23:27:00,
2013-01-31 18:32:00,33.9,24.5,30.00,ESE,119,0.0,0.0,68,0.00,,---,0.00,VWS V14.01,2013-01-31 23:32:00,
2013-01-31 18:37:00,33.8,25.1,30.00,SSW,194,2.0,7.0,70,0.00,,---,0.00,VWS V14.01,2013-01-31 23:37:00,
2013-01-31 18:42:00,33.8,25.4,30.01,South,190,2.0,6.0,71,0.00,,---,0.00,VWS V14.01,2013-01-31 23:42:00,
2013-01-31 18:47:00,33.6,26.9,30.01,WSW,256,1.0,5.0,76,0.00,,---,0.00,VWS V14.01,2013-01-31 23:47:00,
2013-01-31 18:52:00,33.0,27.5,30.01,SW,218,2.0,2.0,80,0.00,,---,0.00,VWS V14.01,2013-01-31 23:52:00,
2013-01-31 18:56:00,32.6,27.4,30.01,West,281,2.0,3.0,81,0.00,,---,0.00,VWS V14.01,2013-01-31 23:56:00,
2013-01-31 19:01:00,32.4,27.5,30.01,West,270,4.0,4.0,82,0.00,,---,0.00,VWS V14.01,2013-02-01 00:01:00,
2013-01-31 19:06:00,32.3,27.4,30.01,WSW,252,1.0,1.0,82,0.00,,---,0.00,VWS V14.01,2013-02-01 00:06:00,
2013-01-31 19:11:00,32.3,27.4,30.01,NW,308,1.0,4.0,82,0.00,,---,0.00,VWS V14.01,2013-02-01 00:11:00,
2013-01-31 19:16:00,32.2,27.6,30.01,SE,133,1.0,2.0,83,0.00,,---,0.00,VWS V14.01,2013-02-01 00:16:00,
2013-01-31 19:21:00,32.1,27.2,30.01,West,267,0.0,2.0,82,0.00,,---,0.00,VWS V14.01,2013-02-01 00:21:00,
2013-01-31 19:26:00,32.1,27.2,30.01,South,190,1.0,2.0,82,0.00,,---,0.00,VWS V14.01,2013-02-01 00:26:00,
2013-01-31 19:31:00,32.2,27.0,30.01,West,259,5.0,5.0,81,0.00,,---,0.00,VWS V14.01,2013-02-01 00:31:00,
2013-01-31 19:36:00,32.4,27.2,30.01,WSW,247,2.0,4.0,81,0.00,,---,0.00,VWS V14.01,2013-02-01 00:36:00,
2013-01-31 19:41:00,32.5,27.0,30.00,WNW,285,1.0,1.0,80,0.00,,---,0.00,VWS V14.01,2013-02-01 00:41:00,
2013-01-31 19:46:00,32.5,27.0,30.01,WNW,294,0.0,1.0,80,0.00,,---,0.00,VWS V14.01,2013-02-01 00:46:00,
2013-01-31 19:51:00,32.6,27.1,30.00,WSW,241,3.0,4.0,80,0.00,,---,0.00,VWS V14.01,2013-02-01 00:51:00,
2013-01-31 19:56:00,32.6,27.4,30.00,WSW,256,2.0,2.0,81,0.00,,---,0.00,VWS V14.01,2013-02-01 00:56:00,
2013-01-31 20:01:00,32.5,27.6,30.00,WNW,300,2.0,2.0,82,0.00,,---,0.00,VWS V14.01,2013-02-01 01:01:00,
2013-01-31 20:06:00,32.3,27.7,30.00,WSW,252,4.0,4.0,83,0.00,,---,0.00,VWS V14.01,2013-02-01 01:06:00,
2013-01-31 20:11:00,31.8,28.1,30.00,WNW,294,1.0,2.0,86,0.00,,---,0.00,VWS V14.01,2013-02-01 01:11:00,
2013-01-31 20:16:00,31.3,28.2,30.00,WNW,301,2.0,3.0,88,0.00,,---,0.00,VWS V14.01,2013-02-01 01:16:00,
2013-01-31 20:21:00,31.1,28.2,30.01,West,264,3.0,3.0,89,0.00,,---,0.00,VWS V14.01,2013-02-01 01:21:00,
2013-01-31 20:26:00,30.9,28.0,30.00,WNW,296,4.0,4.0,89,0.00,,---,0.00,VWS V14.01,2013-02-01 01:26:00,
2013-01-31 20:31:00,30.8,28.2,30.01,NW,304,1.0,1.0,90,0.00,,---,0.00,VWS V14.01,2013-02-01 01:31:00,
2013-01-31 20:36:00,30.8,28.2,30.00,SW,235,4.0,4.0,90,0.00,,---,0.00,VWS V14.01,2013-02-01 01:36:00,
2013-01-31 20:41:00,30.7,28.1,30.00,WNW,283,1.0,2.0,90,0.00,,---,0.00,VWS V14.01,2013-02-01 01:41:00,
2013-01-31 20:46:00,30.7,28.4,30.00,WNW,284,2.0,3.0,91,0.00,,---,0.00,VWS V14.01,2013-02-01 01:46:00,
2013-01-31 20:51:00,30.6,28.3,30.01,NW,326,4.0,7.0,91,0.00,,---,0.00,VWS V14.01,2013-02-01 01:51:00,
2013-01-31 20:56:00,30.5,28.5,30.01,West,260,2.0,4.0,92,0.00,,---,0.00,VWS V14.01,2013-02-01 01:56:00,
2013-01-31 21:01:00,30.4,28.4,30.00,SSE,160,1.0,4.0,92,0.00,,---,0.00,VWS V14.01,2013-02-01 02:01:00,
2013-01-31 21:06:00,30.3,28.3,30.01,SW,216,7.0,7.0,92,0.00,,---,0.00,VWS V14.01,2013-02-01 02:06:00,
2013-01-31 21:11:00,30.3,28.3,30.01,WNW,287,6.0,8.0,92,0.00,,---,0.00,VWS V14.01,2013-02-01 02:11:00,
2013-01-31 21:16:00,30.3,28.3,30.01,NNW,327,3.0,5.0,92,0.00,,---,0.00,VWS V14.01,2013-02-01 02:16:00,
2013-01-31 21:21:00,30.4,28.4,30.01,West,264,4.0,6.0,92,0.00,,---,0.00,VWS V14.01,2013-02-01 02:21:00,
2013-01-31 21:26:00,30.4,28.4,30.01,WSW,237,5.0,6.0,92,0.00,,---,0.00,VWS V14.01,2013-02-01 02:26:00,
2013-01-31 21:31:00,30.1,27.8,30.01,WNW,290,9.0,25.0,91,0.00,,---,0.00,VWS V14.01,2013-02-01 02:31:00,
2013-01-31 21:36:00,27.9,25.4,30.04,SW,223,16.0,17.0,90,0.00,,---,0.00,VWS V14.01,2013-02-01 02:36:00,
2013-01-31 21:41:00,26.6,24.3,30.05,NNW,344,5.0,17.0,91,0.00,,---,0.00,VWS V14.01,2013-02-01 02:41:00,
2013-01-31 21:46:00,25.7,23.4,30.06,West,269,14.0,22.0,91,0.00,,---,0.00,VWS V14.01,2013-02-01 02:46:00,
2013-01-31 21:51:00,24.7,22.2,30.07,WNW,302,15.0,24.0,90,0.00,,---,0.00,VWS V14.01,2013-02-01 02:51:00,
2013-01-31 21:56:00,24.0,21.5,30.08,WNW,295,10.0,16.0,90,0.00,,---,0.00,VWS V14.01,2013-02-01 02:56:00,
2013-01-31 22:01:00,23.5,21.0,30.09,WNW,298,8.0,14.0,90,0.00,,---,0.00,VWS V14.01,2013-02-01 03:01:00,
2013-01-31 22:06:00,23.3,20.5,30.09,WNW,295,9.0,13.0,89,0.00,,---,0.00,VWS V14.01,2013-02-01 03:06:00,
2013-01-31 22:11:00,22.8,19.8,30.10,NW,315,17.0,17.0,88,0.00,,---,0.00,VWS V14.01,2013-02-01 03:11:00,
2013-01-31 22:16:00,22.4,18.9,30.11,WNW,295,9.0,15.0,86,0.00,,---,0.00,VWS V14.01,2013-02-01 03:16:00,
2013-01-31 22:21:00,22.1,18.3,30.11,WNW,290,7.0,13.0,85,0.00,,---,0.00,VWS V14.01,2013-02-01 03:21:00,
2013-01-31 22:26:00,21.8,17.4,30.11,WSW,248,11.0,19.0,83,0.00,,---,0.00,VWS V14.01,2013-02-01 03:26:00,
2013-01-31 22:31:00,21.6,17.2,30.11,WNW,294,8.0,11.0,83,0.00,,---,0.00,VWS V14.01,2013-02-01 03:31:00,
2013-01-31 22:36:00,21.5,17.4,30.11,WNW,288,6.0,10.0,84,0.00,,---,0.00,VWS V14.01,2013-02-01 03:36:00,
2013-01-31 22:41:00,21.4,17.3,30.12,NNW,345,8.0,14.0,84,0.00,,---,0.00,VWS V14.01,2013-02-01 03:41:00,
2013-01-31 22:46:00,21.3,17.2,30.12,WSW,249,7.0,13.0,84,0.00,,---,0.00,VWS V14.01,2013-02-01 03:46:00,
2013-01-31 22:51:00,21.3,17.2,30.12,West,278,6.0,10.0,84,0.00,,---,0.00,VWS V14.01,2013-02-01 03:51:00,
2013-01-31 22:56:00,21.2,16.3,30.13,SW,230,10.0,13.0,81,0.00,,---,0.00,VWS V14.01,2013-02-01 03:56:00,
2013-01-31 23:01:00,21.0,15.8,30.13,WNW,302,3.0,7.0,80,0.00,,---,0.00,VWS V14.01,2013-02-01 04:01:00,
2013-01-31 23:06:00,20.8,16.2,30.14,WNW,301,4.0,7.0,82,0.00,,---,0.00,VWS V14.01,2013-02-01 04:06:00,
2013-01-31 23:11:00,20.7,16.1,30.14,SSW,211,12.0,12.0,82,0.00,,---,0.00,VWS V14.01,2013-02-01 04:11:00,
2013-01-31 23:16:00,20.5,15.9,30.14,WNW,293,11.0,13.0,82,0.00,,---,0.00,VWS V14.01,2013-02-01 04:16:00,
2013-01-31 23:21:00,20.5,16.2,30.14,NNE,27,3.0,9.0,83,0.00,,---,0.00,VWS V14.01,2013-02-01 04:21:00,
2013-01-31 23:26:00,20.4,16.6,30.15,West,277,8.0,9.0,85,0.00,,---,0.00,VWS V14.01,2013-02-01 04:26:00,
2013-01-31 23:31:00,19.6,13.9,30.15,WNW,290,16.0,18.0,78,0.00,,---,0.00,VWS V14.01,2013-02-01 04:31:00,
2013-01-31 23:36:00,19.1,13.1,30.16,West,273,13.0,16.0,77,0.00,,---,0.00,VWS V14.01,2013-02-01 04:36:00,
2013-01-31 23:41:00,18.7,11.8,30.17,NW,306,6.0,10.0,74,0.00,,---,0.00,VWS V14.01,2013-02-01 04:41:00,
2013-01-31 23:46:00,18.4,11.5,30.17,WNW,291,7.0,15.0,74,0.00,,---,0.00,VWS V14.01,2013-02-01 04:46:00,
2013-01-31 23:51:00,18.2,11.3,30.17,WSW,237,9.0,9.0,74,0.00,,---,0.00,VWS V14.01,2013-02-01 04:51:00,
2013-01-31 23:56:00,18.0,11.7,30.18,West,273,12.0,15.0,76,0.00,,---,0.00,VWS V14.01,2013-02-01 04:56:00,